Time,TemperatureF,DewpointF,PressureIn,WindDirection,WindDirectionDegrees,WindSpeedMPH,WindSpeedGustMPH,Humidity,HourlyPrecipIn,Conditions,Clouds,dailyrainin,SoftwareType,DateUTC
2013-02-03 00:00:00,21.0,21.0,30.01,ESE,112,2.0,2.0,100,0.00,,,0.00,VWS V14.00,2013-02-03 05:00:00,
2013-02-03 00:01:00,21.0,21.0,30.01,SE,135,4.0,5.0,100,0.00,,,0.00,VWS V14.00,2013-02-03 05:01:00,
2013-02-03 00:03:00,21.0,21.0,30.01,SE,135,5.0,5.0,100,0.00,,,0.00,VWS V14.00,2013-02-03 05:03:00,
2013-02-03 00:06:00,21.0,21.0,30.01,SE,135,2.0,5.0,100,0.00,,,0.00,VWS V14.00,2013-02-03 05:06:00,
2013-02-03 00:07:00,21.0,21.0,30.01,SE,135,1.0,5.0,100,0.00,,,0.00,VWS V14.00,2013-02-03 05:07:00,
2013-02-03 00:08:00,21.0,21.0,30.01,SE,135,1.0,5.0,100,0.00,,,0.00,VWS V14.00,2013-02-03 05:08:00,
2013-02-03 00:11:00,21.0,21.0,30.01,East,90,4.0,5.0,100,0.00,,,0.00,VWS V14.00,2013-02-03 05:11:00,
2013-02-03 00:13:00,21.0,21.0,30.01,East,90,1.0,5.0,100,0.00,,,0.00,VWS V14.00,2013-02-03 05:13:00,
2013-02-03 00:14:00,21.0,21.0,30.00,East,90,2.0,3.0,100,0.00,,,0.00,VWS V14.00,2013-02-03 05:14:00,
2013-02-03 00:17:00,21.0,21.0,30.00,East,90,2.0,3.0,100,0.00,,,0.00,VWS V14.00,2013-02-03 05:17:00,
2013-02-03 00:18:00,21.0,21.0,30.00,East,90,0.0,2.0,100,0.00,,,0.00,VWS V14.00,2013-02-03 05:18:00,
2013-02-03 00:19:00,21.0,21.0,30.00,East,90,1.0,2.0,100,0.00,,,0.00,VWS V14.00,2013-02-03 05:19:00,
2013-02-03 00:23:00,21.0,21.0,30.00,SE,135,3.0,4.0,100,0.00,,,0.00,VWS V14.00,2013-02-03 05:23:00,
2013-02-03 00:24:00,21.0,21.0,30.00,ESE,112,2.0,4.0,100,0.00,,,0.00,VWS V14.00,2013-02-03 05:24:00,
2013-02-03 00:25:00,21.0,21.0,30.00,ESE,112,3.0,4.0,100,0.00,,,0.00,VWS V14.00,2013-02-03 05:25:00,
2013-02-03 00:29:00,21.0,21.0,30.00,SE,135,2.0,6.0,100,0.00,,,0.00,VWS V14.00,2013-02-03 05:29:00,
2013-02-03 00:30:00,21.0,21.0,30.00,SE,135,0.0,6.0,100,0.00,,,0.00,VWS V14.00,2013-02-03 05:30:00,
2013-02-03 00:35:00,21.0,21.0,30.00,ENE,67,2.0,4.0,100,0.00,,,0.00,VWS V14.00,2013-02-03 05:35:00,
2013-02-03 00:37:00,21.0,21.0,30.00,East,90,1.0,4.0,100,0.00,,,0.00,VWS V14.00,2013-02-03 05:37:00,
2013-02-03 00:40:00,21.0,21.0,30.00,ENE,67,3.0,5.0,100,0.00,,,0.00,VWS V14.00,2013-02-03 05:40:00,
2013-02-03 00:41:00,21.0,21.0,30.00,ESE,112,5.0,5.0,100,0.00,,,0.00,VWS V14.00,2013-02-03 05:41:00,
2013-02-03 00:42:00,21.0,21.0,30.00,ENE,67,5.0,6.0,100,0.00,,,0.00,VWS V14.00,2013-02-03 05:42:00,
2013-02-03 00:43:00,21.0,21.0,30.00,ENE,67,3.0,6.0,100,0.00,,,0.00,VWS V14.00,2013-02-03 05:43:00,
2013-02-03 00:46:00,21.0,21.0,29.99,East,90,2.0,5.0,100,0.00,,,0.00,VWS V14.00,2013-02-03 05:46:00,
2013-02-03 00:47:00,20.0,20.0,29.99,East,90,3.0,5.0,100,0.00,,,0.00,VWS V14.00,2013-02-03 05:47:00,
2013-02-03 00:48:00,20.0,20.0,29.99,East,90,3.0,3.0,100,0.00,,,0.00,VWS V14.00,2013-02-03 05:48:00,
2013-02-03 00:50:00,20.0,20.0,29.99,SE,135,1.0,5.0,100,0.00,,,0.00,VWS V14.00,2013-02-03 05:50:00,
2013-02-03 00:52:00,20.0,20.0,29.99,ESE,112,3.0,5.0,100,0.00,,,0.00,VWS V14.00,2013-02-03 05:52:00,
2013-02-03 00:53:00,21.0,21.0,29.99,ESE,112,2.0,3.0,100,0.00,,,0.00,VWS V14.00,2013-02-03 05:53:00,
2013-02-03 00:54:00,21.0,21.0,29.99,ESE,112,1.0,3.0,100,0.00,,,0.00,VWS V14.00,2013-02-03 05:54:00,
2013-02-03 00:56:00,20.0,20.0,29.99,ESE,112,0.0,3.0,100,0.00,,,0.00,VWS V14.00,2013-02-03 05:56:00,
2013-02-03 00:58:00,20.0,20.0,29.99,ESE,112,0.0,3.0,100,0.00,,,0.00,VWS V14.00,2013-02-03 05:58:00,
2013-02-03 00:59:00,20.0,20.0,29.99,SE,135,3.0,3.0,100,0.00,,,0.00,VWS V14.00,2013-02-03 05:59:00,
2013-02-03 01:00:00,20.0,20.0,29.99,SE,135,4.0,4.0,100,0.00,,,0.00,VWS V14.00,2013-02-03 06:00:00,
2013-02-03 01:01:00,20.0,20.0,29.99,East,90,2.0,5.0,100,0.00,,,0.00,VWS V14.00,2013-02-03 06:01:00,
2013-02-03 01:03:00,20.0,20.0,29.99,ESE,112,1.0,5.0,100,0.00,,,0.00,VWS V14.00,2013-02-03 06:03:00,
2013-02-03 01:04:00,20.0,20.0,29.98,ESE,112,3.0,5.0,100,0.00,,,0.00,VWS V14.00,2013-02-03 06:04:00,
2013-02-03 01:07:00,20.0,20.0,29.98,ESE,112,1.0,5.0,100,0.00,,,0.00,VWS V14.00,2013-02-03 06:07:00,
2013-02-03 01:08:00,20.0,20.0,29.98,ESE,112,3.0,5.0,100,0.00,,,0.00,VWS V14.00,2013-02-03 06:08:00,
2013-02-03 01:12:00,20.0,20.0,29.98,SSE,157,0.0,4.0,100,0.00,,,0.00,VWS V14.00,2013-02-03 06:12:00,
2013-02-03 01:13:00,20.0,20.0,29.98,ESE,112,3.0,4.0,100,0.00,,,0.00,VWS V14.00,2013-02-03 06:13:00,
2013-02-03 01:14:00,20.0,20.0,29.98,East,90,3.0,5.0,100,0.00,,,0.00,VWS V14.00,2013-02-03 06:14:00,
2013-02-03 01:17:00,20.0,20.0,29.98,East,90,1.0,5.0,100,0.00,,,0.00,VWS V14.00,2013-02-03 06:17:00,
2013-02-03 01:18:00,20.0,20.0,29.98,East,90,1.0,2.0,100,0.00,,,0.00,VWS V14.00,2013-02-03 06:18:00,
2013-02-03 01:19:00,20.0,20.0,29.98,East,90,2.0,4.0,100,0.00,,,0.00,VWS V14.00,2013-02-03 06:19:00,
2013-02-03 01:23:00,20.0,20.0,29.98,East,90,0.0,4.0,100,0.00,,,0.00,VWS V14.00,2013-02-03 06:23:00,
2013-02-03 01:24:00,20.0,20.0,29.98,East,90,1.0,2.0,100,0.00,,,0.00,VWS V14.00,2013-02-03 06:24:00,
2013-02-03 01:25:00,20.0,20.0,29.98,East,90,1.0,2.0,100,0.00,,,0.00,VWS V14.00,2013-02-03 06:25:00,
2013-02-03 01:28:00,20.0,20.0,29.98,East,90,0.0,3.0,100,0.00,,,0.00,VWS V14.00,2013-02-03 06:28:00,
2013-02-03 01:29:00,20.0,20.0,29.98,East,90,2.0,3.0,100,0.00,,,0.00,VWS V14.00,2013-02-03 06:29:00,
2013-02-03 01:31:00,20.0,20.0,29.98,SE,135,3.0,5.0,100,0.00,,,0.00,VWS V14.00,2013-02-03 06:31:00,
2013-02-03 01:33:00,20.0,20.0,29.98,SE,135,2.0,2.0,100,0.00,,,0.00,VWS V14.00,2013-02-03 06:33:00,
2013-02-03 01:34:00,20.0,20.0,29.98,SE,135,2.0,3.0,100,0.00,,,0.00,VWS V14.00,2013-02-03 06:34:00,
2013-02-03 01:36:00,20.0,20.0,29.98,SE,135,1.0,5.0,100,0.00,,,0.00,VWS V14.00,2013-02-03 06:36:00,
2013-02-03 01:39:00,20.0,20.0,29.98,East,90,3.0,5.0,100,0.00,,,0.00,VWS V14.00,2013-02-03 06:39:00,
2013-02-03 01:41:00,20.0,20.0,29.98,East,90,3.0,5.0,100,0.00,,,0.00,VWS V14.00,2013-02-03 06:41:00,
2013-02-03 01:42:00,20.0,20.0,29.98,East,90,3.0,5.0,100,0.00,,,0.00,VWS V14.00,2013-02-03 06:42:00,
2013-02-03 01:44:00,20.0,20.0,29.98,East,90,3.0,5.0,100,0.00,,,0.00,VWS V14.00,2013-02-03 06:44:00,
2013-02-03 01:46:00,20.0,20.0,29.98,East,90,2.0,5.0,100,0.00,,,0.00,VWS V14.00,2013-02-03 06:46:00,
2013-02-03 01:47:00,20.0,20.0,29.98,East,90,1.0,5.0,100,0.00,,,0.00,VWS V14.00,2013-02-03 06:47:00,
2013-02-03 01:49:00,20.0,20.0,29.98,ESE,112,3.0,3.0,100,0.00,,,0.00,VWS V14.00,2013-02-03 06:49:00,
2013-02-03 01:51:00,20.0,20.0,29.98,ESE,112,1.0,3.0,100,0.00,,,0.00,VWS V14.00,2013-02-03 06:51:00,
2013-02-03 01:53:00,20.0,20.0,29.98,ESE,112,1.0,3.0,100,0.00,,,0.00,VWS V14.00,2013-02-03 06:53:00,
2013-02-03 01:55:00,20.0,20.0,29.98,ESE,112,0.0,1.0,100,0.00,,,0.00,VWS V14.00,2013-02-03 06:55:00,
2013-02-03 01:57:00,20.0,20.0,29.98,ESE,112,2.0,4.0,100,0.00,,,0.00,VWS V14.00,2013-02-03 06:57:00,
2013-02-03 01:58:00,20.0,20.0,29.98,SE,135,3.0,3.0,100,0.00,,,0.00,VWS V14.00,2013-02-03 06:58:00,
2013-02-03 02:02:00,20.0,20.0,29.98,SE,135,0.0,3.0,100,0.00,,,0.00,VWS V14.00,2013-02-03 07:02:00,
2013-02-03 02:03:00,20.0,20.0,29.97,SE,135,0.0,2.0,100,0.00,,,0.00,VWS V14.00,2013-02-03 07:03:00,
2013-02-03 02:04:00,20.0,20.0,29.97,SE,135,0.0,2.0,100,0.00,,,0.00,VWS V14.00,2013-02-03 07:04:00,
2013-02-03 02:07:00,20.0,20.0,29.97,SE,135,1.0,2.0,100,0.00,,,0.00,VWS V14.00,2013-02-03 07:07:00,
2013-02-03 02:08:00,20.0,20.0,29.97,SE,135,0.0,2.0,100,0.00,,,0.00,VWS V14.00,2013-02-03 07:08:00,
2013-02-03 02:09:00,20.0,20.0,29.97,SE,135,0.0,1.0,100,0.00,,,0.00,VWS V14.00,2013-02-03 07:09:00,
2013-02-03 02:10:00,20.0,20.0,29.97,SE,135,0.0,1.0,100,0.00,,,0.00,VWS V14.00,2013-02-03 07:10:00,
2013-02-03 02:13:00,20.0,20.0,29.97,SE,135,3.0,3.0,100,0.00,,,0.00,VWS V14.00,2013-02-03 07:13:00,
2013-02-03 02:14:00,20.0,20.0,29.97,SE,135,1.0,5.0,100,0.00,,,0.00,VWS V14.00,2013-02-03 07:14:00,
2013-02-03 02:15:00,20.0,20.0,29.97,SE,135,2.0,5.0,100,0.00,,,0.00,VWS V14.00,2013-02-03 07:15:00,
2013-02-03 02:18:00,20.0,20.0,29.97,ESE,112,2.0,2.0,100,0.00,,,0.00,VWS V14.00,2013-02-03 07:18:00,
2013-02-03 02:20:00,20.0,20.0,29.97,ESE,112,0.0,2.0,100,0.00,,,0.00,VWS V14.00,2013-02-03 07:20:00,
2013-02-03 02:21:00,20.0,20.0,29.97,ESE,112,0.0,2.0,100,0.00,,,0.00,VWS V14.00,2013-02-03 07:21:00,
2013-02-03 02:24:00,20.0,20.0,29.97,SE,135,1.0,3.0,100,0.00,,,0.00,VWS V14.00,2013-02-03 07:24:00,
2013-02-03 02:26:00,20.0,20.0,29.97,SE,135,3.0,3.0,100,0.00,,,0.00,VWS V14.00,2013-02-03 07:26:00,
2013-02-03 02:27:00,20.0,20.0,29.97,SE,135,3.0,4.0,100,0.00,,,0.00,VWS V14.00,2013-02-03 07:27:00,
2013-02-03 02:31:00,20.0,20.0,29.97,SE,135,3.0,4.0,100,0.00,,,0.00,VWS V14.00,2013-02-03 07:31:00,
2013-02-03 02:32:00,20.0,20.0,29.97,SE,135,0.0,4.0,100,0.00,,,0.00,VWS V14.00,2013-02-03 07:32:00,
2013-02-03 02:33:00,20.0,20.0,29.97,SE,135,2.0,2.0,100,0.00,,,0.00,VWS V14.00,2013-02-03 07:33:00,
2013-02-03 02:36:00,20.0,20.0,29.97,SE,135,2.0,5.0,100,0.00,,,0.00,VWS V14.00,2013-02-03 07:36:00,
2013-02-03 02:37:00,20.0,20.0,29.97,SE,135,3.0,5.0,100,0.00,,,0.00,VWS V14.00,2013-02-03 07:37:00,
2013-02-03 02:40:00,20.0,20.0,29.97,SSE,157,3.0,5.0,100,0.00,,,0.00,VWS V14.00,2013-02-03 07:40:00,
2013-02-03 02:42:00,20.0,20.0,29.97,SSE,157,3.0,5.0,100,0.00,,,0.00,VWS V14.00,2013-02-03 07:42:00,
2013-02-03 02:44:00,20.0,20.0,29.96,South,180,2.0,4.0,100,0.00,,,0.00,VWS V14.00,2013-02-03 07:44:00,
2013-02-03 02:46:00,20.0,20.0,29.96,South,180,4.0,5.0,100,0.00,,,0.00,VWS V14.00,2013-02-03 07:46:00,
2013-02-03 02:47:00,20.0,20.0,29.96,South,180,2.0,5.0,100,0.00,,,0.00,VWS V14.00,2013-02-03 07:47:00,
2013-02-03 02:49:00,20.0,20.0,29.96,South,180,1.0,3.0,100,0.00,,,0.00,VWS V14.00,2013-02-03 07:49:00,
2013-02-03 02:50:00,20.0,20.0,29.96,South,180,2.0,3.0,100,0.00,,,0.00,VWS V14.00,2013-02-03 07:50:00,
2013-02-03 02:51:00,20.0,20.0,29.96,South,180,1.0,4.0,100,0.00,,,0.00,VWS V14.00,2013-02-03 07:51:00,
2013-02-03 02:53:00,20.0,20.0,29.96,South,180,2.0,2.0,100,0.00,,,0.00,VWS V14.00,2013-02-03 07:53:00,
2013-02-03 02:54:00,20.0,20.0,29.96,South,180,2.0,2.0,100,0.00,,,0.00,VWS V14.00,2013-02-03 07:54:00,
2013-02-03 02:55:00,20.0,20.0,29.96,South,180,1.0,2.0,100,0.00,,,0.00,VWS V14.00,2013-02-03 07:55:00,
2013-02-03 02:56:00,20.0,20.0,29.96,South,180,1.0,2.0,100,0.00,,,0.00,VWS V14.00,2013-02-03 07:56:00,
2013-02-03 02:59:00,20.0,20.0,29.96,South,180,1.0,3.0,100,0.00,,,0.00,VWS V14.00,2013-02-03 07:59:00,
2013-02-03 03:00:00,20.0,20.0,29.96,South,180,2.0,3.0,100,0.00,,,0.00,VWS V14.00,2013-02-03 08:00:00,
2013-02-03 03:01:00,20.0,20.0,29.96,South,180,2.0,3.0,100,0.00,,,0.00,VWS V14.00,2013-02-03 08:01:00,
2013-02-03 03:04:00,20.0,20.0,29.96,SSW,202,2.0,3.0,100,0.00,,,0.00,VWS V14.00,2013-02-03 08:04:00,
2013-02-03 03:05:00,20.0,20.0,29.96,SSW,202,1.0,3.0,100,0.00,,,0.00,VWS V14.00,2013-02-03 08:05:00,
2013-02-03 03:06:00,19.0,19.0,29.96,SSW,202,1.0,3.0,100,0.00,,,0.00,VWS V14.00,2013-02-03 08:06:00,
2013-02-03 03:08:00,19.0,19.0,29.96,SSW,202,0.0,3.0,100,0.00,,,0.00,VWS V14.00,2013-02-03 08:08:00,
2013-02-03 03:09:00,19.0,19.0,29.96,SSW,202,1.0,2.0,100,0.00,,,0.00,VWS V14.00,2013-02-03 08:09:00,
2013-02-03 03:10:00,19.0,19.0,29.96,SSW,202,0.0,2.0,100,0.00,,,0.00,VWS V14.00,2013-02-03 08:10:00,
2013-02-03 03:12:00,19.0,19.0,29.96,SSW,202,1.0,2.0,100,0.00,,,0.00,VWS V14.00,2013-02-03 08:12:00,
2013-02-03 03:13:00,19.0,19.0,29.96,SSW,202,1.0,2.0,100,0.00,,,0.00,VWS V14.00,2013-02-03 08:13:00,
2013-02-03 03:15:00,19.0,19.0,29.96,SSW,202,2.0,4.0,100,0.00,,,0.00,VWS V14.00,2013-02-03 08:15:00,
2013-02-03 03:16:00,19.0,19.0,29.96,SSW,202,1.0,4.0,100,0.00,,,0.00,VWS V14.00,2013-02-03 08:16:00,
2013-02-03 03:18:00,19.0,19.0,29.96,SSW,202,1.0,4.0,100,0.00,,,0.00,VWS V14.00,2013-02-03 08:18:00,
2013-02-03 03:21:00,19.0,19.0,29.96,SSW,202,1.0,3.0,100,0.00,,,0.00,VWS V14.00,2013-02-03 08:21:00,
2013-02-03 03:22:00,19.0,19.0,29.96,SSW,202,1.0,3.0,100,0.00,,,0.00,VWS V14.00,2013-02-03 08:22:00,
2013-02-03 03:23:00,20.0,20.0,29.95,SSW,202,1.0,1.0,100,0.00,,,0.00,VWS V14.00,2013-02-03 08:23:00,
2013-02-03 03:24:00,20.0,20.0,29.95,SSW,202,2.0,2.0,100,0.00,,,0.00,VWS V14.00,2013-02-03 08:24:00,
2013-02-03 03:27:00,19.0,19.0,29.95,SSW,202,0.0,2.0,100,0.00,,,0.00,VWS V14.00,2013-02-03 08:27:00,
2013-02-03 03:28:00,19.0,19.0,29.95,SSW,202,1.0,2.0,100,0.00,,,0.00,VWS V14.00,2013-02-03 08:28:00,
2013-02-03 03:31:00,19.0,19.0,29.95,SSW,202,0.0,2.0,100,0.00,,,0.00,VWS V14.00,2013-02-03 08:31:00,
2013-02-03 03:32:00,19.0,19.0,29.95,SSW,202,0.0,2.0,100,0.00,,,0.00,VWS V14.00,2013-02-03 08:32:00,
2013-02-03 03:33:00,19.0,19.0,29.95,SSW,202,0.0,2.0,100,0.00,,,0.00,VWS V14.00,2013-02-03 08:33:00,
2013-02-03 03:34:00,20.0,20.0,29.95,SSW,202,0.0,0.0,100,0.00,,,0.00,VWS V14.00,2013-02-03 08:34:00,
2013-02-03 03:36:00,19.0,19.0,29.95,SSW,202,0.0,0.0,100,0.00,,,0.00,VWS V14.00,2013-02-03 08:36:00,
2013-02-03 03:38:00,19.0,19.0,29.95,SSW,202,0.0,0.0,100,0.00,,,0.00,VWS V14.00,2013-02-03 08:38:00,
2013-02-03 03:39:00,19.0,19.0,29.95,SSW,202,0.0,0.0,100,0.00,,,0.00,VWS V14.00,2013-02-03 08:39:00,
2013-02-03 03:42:00,19.0,19.0,29.95,SSW,202,0.0,0.0,100,0.00,,,0.00,VWS V14.00,2013-02-03 08:42:00,
2013-02-03 03:44:00,19.0,19.0,29.94,SSW,202,0.0,0.0,100,0.00,,,0.00,VWS V14.00,2013-02-03 08:44:00,
2013-02-03 03:45:00,19.0,19.0,29.94,SSW,202,0.0,0.0,100,0.00,,,0.00,VWS V14.00,2013-02-03 08:45:00,
2013-02-03 03:49:00,19.0,19.0,29.94,SSW,202,0.0,0.0,100,0.00,,,0.00,VWS V14.00,2013-02-03 08:49:00,
2013-02-03 03:50:00,19.0,19.0,29.94,SSW,202,0.0,0.0,100,0.00,,,0.00,VWS V14.00,2013-02-03 08:50:00,
2013-02-03 03:51:00,19.0,19.0,29.94,SSW,202,0.0,0.0,100,0.00,,,0.00,VWS V14.00,2013-02-03 08:51:00,
2013-02-03 03:52:00,19.0,19.0,29.94,SSW,202,0.0,0.0,100,0.00,,,0.00,VWS V14.00,2013-02-03 08:52:00,
2013-02-03 03:55:00,19.0,19.0,29.93,SSW,202,0.0,0.0,100,0.00,,,0.00,VWS V14.00,2013-02-03 08:55:00,
2013-02-03 03:56:00,19.0,19.0,29.93,SSW,202,0.0,0.0,100,0.00,,,0.00,VWS V14.00,2013-02-03 08:56:00,
2013-02-03 03:57:00,19.0,19.0,29.93,SSW,202,0.0,0.0,100,0.00,,,0.00,VWS V14.00,2013-02-03 08:57:00,
2013-02-03 03:58:00,19.0,19.0,29.93,SSW,202,0.0,0.0,100,0.00,,,0.00,VWS V14.00,2013-02-03 08:58:00,
2013-02-03 04:00:00,19.0,19.0,29.93,SSW,202,0.0,0.0,100,0.00,,,0.00,VWS V14.00,2013-02-03 09:00:00,
2013-02-03 04:02:00,19.0,19.0,29.93,SSW,202,0.0,0.0,100,0.00,,,0.00,VWS V14.00,2013-02-03 09:02:00,
2013-02-03 04:03:00,19.0,19.0,29.93,SSW,202,0.0,0.0,100,0.00,,,0.00,VWS V14.00,2013-02-03 09:03:00,
2013-02-03 04:08:00,19.0,19.0,29.93,SSW,202,0.0,0.0,100,0.00,,,0.00,VWS V14.00,2013-02-03 09:08:00,
2013-02-03 04:09:00,19.0,19.0,29.93,SSW,202,0.0,0.0,100,0.00,,,0.00,VWS V14.00,2013-02-03 09:09:00,
2013-02-03 04:13:00,19.0,19.0,29.92,SSW,202,0.0,0.0,100,0.00,,,0.00,VWS V14.00,2013-02-03 09:13:00,
2013-02-03 04:14:00,19.0,19.0,29.92,SSW,202,0.0,0.0,100,0.00,,,0.00,VWS V14.00,2013-02-03 09:14:00,
2013-02-03 04:15:00,19.0,19.0,29.92,SSW,202,0.0,0.0,100,0.00,,,0.00,VWS V14.00,2013-02-03 09:15:00,
2013-02-03 04:16:00,19.0,19.0,29.92,SSW,202,0.0,0.0,100,0.00,,,0.00,VWS V14.00,2013-02-03 09:16:00,
2013-02-03 04:19:00,19.0,19.0,29.92,SSW,202,1.0,2.0,100,0.00,,,0.00,VWS V14.00,2013-02-03 09:19:00,
2013-02-03 04:20:00,19.0,19.0,29.92,SSW,202,1.0,2.0,100,0.00,,,0.00,VWS V14.00,2013-02-03 09:20:00,
2013-02-03 04:21:00,20.0,20.0,29.92,SSW,202,1.0,2.0,100,0.00,,,0.00,VWS V14.00,2013-02-03 09:21:00,
2013-02-03 04:23:00,20.0,20.0,29.92,SSW,202,1.0,2.0,100,0.00,,,0.00,VWS V14.00,2013-02-03 09:23:00,
2013-02-03 04:24:00,20.0,20.0,29.92,SSW,202,1.0,2.0,100,0.00,,,0.00,VWS V14.00,2013-02-03 09:24:00,
2013-02-03 04:25:00,20.0,20.0,29.92,SSW,202,0.0,2.0,100,0.00,,,0.00,VWS V14.00,2013-02-03 09:25:00,
2013-02-03 04:27:00,20.0,20.0,29.92,SSW,202,1.0,2.0,100,0.00,,,0.00,VWS V14.00,2013-02-03 09:27:00,
2013-02-03 04:28:00,20.0,20.0,29.92,South,180,3.0,4.0,100,0.00,,,0.00,VWS V14.00,2013-02-03 09:28:00,
2013-02-03 04:32:00,20.0,20.0,29.92,South,180,3.0,4.0,100,0.00,,,0.00,VWS V14.00,2013-02-03 09:32:00,
2013-02-03 04:33:00,20.0,20.0,29.92,South,180,5.0,5.0,100,0.00,,,0.00,VWS V14.00,2013-02-03 09:33:00,
2013-02-03 04:36:00,20.0,20.0,29.92,South,180,3.0,6.0,100,0.00,,,0.00,VWS V14.00,2013-02-03 09:36:00,
2013-02-03 04:38:00,20.0,20.0,29.92,South,180,3.0,6.0,100,0.00,,,0.00,VWS V14.00,2013-02-03 09:38:00,
2013-02-03 04:39:00,20.0,20.0,29.92,SSW,202,7.0,7.0,100,0.00,,,0.00,VWS V14.00,2013-02-03 09:39:00,
2013-02-03 04:41:00,20.0,20.0,29.92,South,180,7.0,9.0,100,0.00,,,0.00,VWS V14.00,2013-02-03 09:41:00,
2013-02-03 04:43:00,20.0,20.0,29.92,South,180,5.0,5.0,100,0.00,,,0.00,VWS V14.00,2013-02-03 09:43:00,
2013-02-03 04:44:00,20.0,20.0,29.92,South,180,6.0,6.0,100,0.00,,,0.00,VWS V14.00,2013-02-03 09:44:00,
2013-02-03 04:46:00,20.0,20.0,29.92,South,180,5.0,10.0,100,0.00,,,0.00,VWS V14.00,2013-02-03 09:46:00,
2013-02-03 04:47:00,20.0,20.0,29.92,WSW,247,5.0,10.0,100,0.00,,,0.00,VWS V14.00,2013-02-03 09:47:00,
2013-02-03 04:49:00,21.0,21.0,29.92,West,270,15.0,16.0,100,0.00,,,0.00,VWS V14.00,2013-02-03 09:49:00,
2013-02-03 04:50:00,21.0,21.0,29.92,West,270,15.0,17.0,100,0.00,,,0.00,VWS V14.00,2013-02-03 09:50:00,
2013-02-03 04:52:00,22.0,22.0,29.92,WSW,247,11.0,18.0,100,0.00,,,0.00,VWS V14.00,2013-02-03 09:52:00,
2013-02-03 04:55:00,22.0,22.0,29.90,West,270,13.0,19.0,100,0.00,,,0.00,VWS V14.00,2013-02-03 09:55:00,
2013-02-03 04:57:00,22.0,22.0,29.90,WNW,292,15.0,20.0,100,0.00,,,0.00,VWS V14.00,2013-02-03 09:57:00,
2013-02-03 04:58:00,22.0,22.0,29.90,WNW,292,12.0,20.0,100,0.00,,,0.00,VWS V14.00,2013-02-03 09:58:00,
2013-02-03 05:00:00,22.0,22.0,29.90,NW,315,13.0,16.0,100,0.00,,,0.00,VWS V14.00,2013-02-03 10:00:00,
2013-02-03 05:02:00,22.0,22.0,29.90,NW,315,11.0,16.0,100,0.00,,,0.00,VWS V14.00,2013-02-03 10:02:00,
2013-02-03 05:03:00,22.0,22.0,29.91,WNW,292,13.0,20.0,100,0.00,,,0.00,VWS V14.00,2013-02-03 10:03:00,
2013-02-03 05:04:00,22.0,22.0,29.91,WNW,292,10.0,20.0,100,0.00,,,0.00,VWS V14.00,2013-02-03 10:04:00,
2013-02-03 05:05:00,21.0,21.0,29.91,WNW,292,13.0,20.0,100,0.00,,,0.00,VWS V14.00,2013-02-03 10:05:00,
2013-02-03 05:08:00,21.0,21.0,29.91,NW,315,13.0,21.0,100,0.00,,,0.00,VWS V14.00,2013-02-03 10:08:00,
2013-02-03 05:09:00,21.0,21.0,29.91,NW,315,21.0,21.0,100,0.00,,,0.00,VWS V14.00,2013-02-03 10:09:00,
2013-02-03 05:10:00,21.0,21.0,29.91,NW,315,21.0,21.0,100,0.00,,,0.00,VWS V14.00,2013-02-03 10:10:00,
2013-02-03 05:11:00,21.0,21.0,29.91,NW,315,19.0,21.0,100,0.00,,,0.00,VWS V14.00,2013-02-03 10:11:00,
2013-02-03 05:13:00,21.0,21.0,29.92,NW,315,20.0,20.0,100,0.00,,,0.00,VWS V14.00,2013-02-03 10:13:00,
2013-02-03 05:14:00,21.0,21.0,29.92,WNW,292,20.0,22.0,100,0.00,,,0.00,VWS V14.00,2013-02-03 10:14:00,
2013-02-03 05:16:00,21.0,21.0,29.92,NW,315,17.0,22.0,100,0.00,,,0.00,VWS V14.00,2013-02-03 10:16:00,
2013-02-03 05:18:00,21.0,21.0,29.92,NW,315,18.0,21.0,100,0.00,,,0.00,VWS V14.00,2013-02-03 10:18:00,
2013-02-03 05:19:00,21.0,21.0,29.92,NW,315,12.0,21.0,100,0.00,,,0.00,VWS V14.00,2013-02-03 10:19:00,
2013-02-03 05:21:00,21.0,21.0,29.92,NW,315,15.0,21.0,100,0.00,,,0.00,VWS V14.00,2013-02-03 10:21:00,
2013-02-03 05:23:00,21.0,21.0,29.92,WNW,292,13.0,16.0,100,0.00,,,0.00,VWS V14.00,2013-02-03 10:23:00,
2013-02-03 05:24:00,21.0,21.0,29.92,NW,315,15.0,19.0,100,0.00,,,0.00,VWS V14.00,2013-02-03 10:24:00,
2013-02-03 05:25:00,21.0,21.0,29.92,NW,315,13.0,19.0,100,0.00,,,0.00,VWS V14.00,2013-02-03 10:25:00,
2013-02-03 05:26:00,21.0,21.0,29.92,West,270,14.0,20.0,100,0.00,,,0.00,VWS V14.00,2013-02-03 10:26:00,
2013-02-03 05:29:00,21.0,21.0,29.92,NW,315,11.0,15.0,100,0.00,,,0.00,VWS V14.00,2013-02-03 10:29:00,
2013-02-03 05:31:00,21.0,21.0,29.92,WNW,292,16.0,19.0,100,0.00,,,0.00,VWS V14.00,2013-02-03 10:31:00,
2013-02-03 05:32:00,21.0,21.0,29.92,NW,315,15.0,19.0,100,0.00,,,0.00,VWS V14.00,2013-02-03 10:32:00,
2013-02-03 05:36:00,21.0,21.0,29.92,West,270,15.0,16.0,100,0.00,,,0.00,VWS V14.00,2013-02-03 10:36:00,
2013-02-03 05:38:00,21.0,21.0,29.92,WNW,292,18.0,19.0,100,0.00,,,0.00,VWS V14.00,2013-02-03 10:38:00,
2013-02-03 05:41:00,21.0,21.0,29.92,WNW,292,11.0,18.0,100,0.00,,,0.00,VWS V14.00,2013-02-03 10:41:00,
2013-02-03 05:42:00,21.0,21.0,29.92,NW,315,15.0,18.0,100,0.00,,,0.00,VWS V14.00,2013-02-03 10:42:00,
2013-02-03 05:43:00,21.0,21.0,29.92,West,270,15.0,16.0,100,0.00,,,0.00,VWS V14.00,2013-02-03 10:43:00,
2013-02-03 05:46:00,21.0,20.3,29.92,WNW,292,12.0,20.0,97,0.00,,,0.00,VWS V14.00,2013-02-03 10:46:00,
2013-02-03 05:47:00,21.0,20.3,29.92,West,270,19.0,20.0,97,0.00,,,0.00,VWS V14.00,2013-02-03 10:47:00,
2013-02-03 05:48:00,21.0,20.5,29.92,West,270,11.0,13.0,98,0.00,,,0.00,VWS V14.00,2013-02-03 10:48:00,
2013-02-03 05:49:00,21.0,20.5,29.92,WNW,292,13.0,14.0,98,0.00,,,0.00,VWS V14.00,2013-02-03 10:49:00,
2013-02-03 05:51:00,21.0,20.3,29.92,West,270,15.0,18.0,97,0.00,,,0.00,VWS V14.00,2013-02-03 10:51:00,
2013-02-03 05:53:00,20.0,19.0,29.92,West,270,15.0,20.0,96,0.00,,,0.00,VWS V14.00,2013-02-03 10:53:00,
2013-02-03 05:54:00,20.0,18.8,29.92,WNW,292,14.0,20.0,95,0.00,,,0.00,VWS V14.00,2013-02-03 10:54:00,
2013-02-03 05:58:00,20.0,18.8,29.92,WNW,292,13.0,20.0,95,0.00,,,0.00,VWS V14.00,2013-02-03 10:58:00,
2013-02-03 05:59:00,20.0,18.8,29.92,West,270,16.0,18.0,95,0.00,,,0.00,VWS V14.00,2013-02-03 10:59:00,
2013-02-03 06:00:00,20.0,18.8,29.92,West,270,18.0,18.0,95,0.00,,,0.00,VWS V14.00,2013-02-03 11:00:00,
2013-02-03 06:04:00,20.0,19.0,29.92,WSW,247,14.0,17.0,96,0.00,,OVC049,0.00,VWS V14.00,2013-02-03 11:04:00,
2013-02-03 06:05:00,20.0,19.0,29.92,West,270,11.0,20.0,96,0.00,,OVC049,0.00,VWS V14.00,2013-02-03 11:05:00,
2013-02-03 06:06:00,20.0,18.8,29.92,West,270,16.0,20.0,95,0.00,,OVC049,0.00,VWS V14.00,2013-02-03 11:06:00,
2013-02-03 06:09:00,20.0,19.0,29.92,WNW,292,13.0,17.0,96,0.00,,OVC049,0.00,VWS V14.00,2013-02-03 11:09:00,
2013-02-03 06:10:00,20.0,19.0,29.92,WNW,292,12.0,17.0,96,0.00,,OVC049,0.00,VWS V14.00,2013-02-03 11:10:00,
2013-02-03 06:13:00,20.0,19.5,29.92,West,270,16.0,19.0,98,0.00,,OVC049,0.00,VWS V14.00,2013-02-03 11:13:00,
2013-02-03 06:14:00,20.0,18.8,29.92,West,270,13.0,17.0,95,0.00,,OVC049,0.00,VWS V14.00,2013-02-03 11:14:00,
2013-02-03 06:15:00,20.0,19.0,29.92,West,270,13.0,17.0,96,0.00,,OVC049,0.00,VWS V14.00,2013-02-03 11:15:00,
2013-02-03 06:19:00,20.0,18.5,29.92,WNW,292,15.0,16.0,94,0.00,,OVC049,0.00,VWS V14.00,2013-02-03 11:19:00,
2013-02-03 06:20:00,20.0,18.0,29.92,West,270,13.0,20.0,92,0.00,,OVC049,0.00,VWS V14.00,2013-02-03 11:20:00,
2013-02-03 06:21:00,20.0,18.0,29.92,WNW,292,15.0,20.0,92,0.00,,OVC049,0.00,VWS V14.00,2013-02-03 11:21:00,
2013-02-03 06:25:00,20.0,17.8,29.91,WNW,292,10.0,16.0,89,0.00,,OVC049,0.00,VWS V14.00,2013-02-03 11:25:00,
2013-02-03 06:26:00,20.0,18.0,29.91,NW,315,9.0,16.0,91,0.00,,OVC049,0.00,VWS V14.00,2013-02-03 11:26:00,
2013-02-03 06:27:00,20.0,18.3,29.91,WNW,292,11.0,16.0,92,0.00,,OVC049,0.00,VWS V14.00,2013-02-03 11:27:00,
2013-02-03 06:30:00,20.0,16.5,29.91,West,270,12.0,17.0,86,0.00,,OVC049,0.00,VWS V14.00,2013-02-03 11:30:00,
2013-02-03 06:32:00,20.0,15.9,29.91,West,270,13.0,17.0,84,0.00,,OVC049,0.00,VWS V14.00,2013-02-03 11:32:00,
2013-02-03 06:33:00,20.0,16.2,29.91,WNW,292,12.0,17.0,85,0.00,,OVC049,0.00,VWS V14.00,2013-02-03 11:33:00,
2013-02-03 06:35:00,20.0,15.4,29.91,West,270,13.0,15.0,82,0.00,,OVC049,0.00,VWS V14.00,2013-02-03 11:35:00,
2013-02-03 06:38:00,20.0,15.4,29.91,WNW,292,11.0,15.0,81,0.00,,OVC049,0.00,VWS V14.00,2013-02-03 11:38:00,
2013-02-03 06:40:00,20.0,15.1,29.91,West,270,16.0,17.0,81,0.00,,OVC049,0.00,VWS V14.00,2013-02-03 11:40:00,
2013-02-03 06:43:00,20.0,15.7,29.91,West,270,11.0,16.0,83,0.00,,OVC049,0.00,VWS V14.00,2013-02-03 11:43:00,
2013-02-03 06:44:00,20.0,15.1,29.91,West,270,11.0,16.0,81,0.00,,OVC049,0.00,VWS V14.00,2013-02-03 11:44:00,
2013-02-03 06:45:00,20.0,14.8,29.91,West,270,14.0,16.0,80,0.00,,OVC049,0.00,VWS V14.00,2013-02-03 11:45:00,
2013-02-03 06:49:00,20.0,16.5,29.91,West,270,8.0,15.0,86,0.00,,OVC049,0.00,VWS V14.00,2013-02-03 11:49:00,
2013-02-03 06:50:00,20.0,15.7,29.91,WNW,292,10.0,15.0,83,0.00,,OVC049,0.00,VWS V14.00,2013-02-03 11:50:00,
2013-02-03 06:54:00,20.0,15.1,29.91,West,270,12.0,16.0,81,0.00,,OVC049,0.00,VWS V14.00,2013-02-03 11:54:00,
2013-02-03 06:55:00,20.0,15.4,29.91,WNW,292,10.0,16.0,82,0.00,,OVC049,0.00,VWS V14.00,2013-02-03 11:55:00,
2013-02-03 06:56:00,20.0,14.8,29.91,WNW,292,13.0,16.0,80,0.00,,OVC049,0.00,VWS V14.00,2013-02-03 11:56:00,
2013-02-03 06:57:00,20.0,15.1,29.91,NW,315,11.0,18.0,81,0.00,,OVC049,0.00,VWS V14.00,2013-02-03 11:57:00,
2013-02-03 07:00:00,20.0,15.1,29.91,West,270,12.0,14.0,81,0.00,,OVC049,0.00,VWS V14.00,2013-02-03 12:00:00,
2013-02-03 07:01:00,20.0,15.1,29.91,WNW,292,10.0,14.0,81,0.00,,BKN095,0.00,VWS V14.00,2013-02-03 12:01:00,
2013-02-03 07:03:00,20.0,16.2,29.91,WNW,292,14.0,14.0,85,0.00,,BKN095,0.00,VWS V14.00,2013-02-03 12:03:00,
2013-02-03 07:05:00,20.0,16.5,29.91,NW,315,10.0,15.0,86,0.00,,BKN095,0.00,VWS V14.00,2013-02-03 12:05:00,
2013-02-03 07:07:00,20.0,16.5,29.91,West,270,15.0,15.0,86,0.00,,BKN095,0.00,VWS V14.00,2013-02-03 12:07:00,
2013-02-03 07:08:00,20.0,16.2,29.91,WNW,292,15.0,16.0,85,0.00,,BKN095,0.00,VWS V14.00,2013-02-03 12:08:00,
2013-02-03 07:11:00,20.0,16.5,29.91,WNW,292,13.0,16.0,86,0.00,,BKN095,0.00,VWS V14.00,2013-02-03 12:11:00,
2013-02-03 07:12:00,20.0,16.5,29.91,NW,315,13.0,19.0,86,0.00,,BKN095,0.00,VWS V14.00,2013-02-03 12:12:00,
2013-02-03 07:13:00,20.0,16.5,29.91,WNW,292,13.0,19.0,86,0.00,,BKN095,0.00,VWS V14.00,2013-02-03 12:13:00,
2013-02-03 07:15:00,20.0,16.8,29.91,West,270,17.0,22.0,87,0.00,,BKN095,0.00,VWS V14.00,2013-02-03 12:15:00,
2013-02-03 07:17:00,20.0,16.5,29.91,WNW,292,21.0,22.0,86,0.00,,BKN095,0.00,VWS V14.00,2013-02-03 12:17:00,
2013-02-03 07:18:00,20.0,16.2,29.91,West,270,20.0,23.0,85,0.00,,BKN095,0.00,VWS V14.00,2013-02-03 12:18:00,
2013-02-03 07:21:00,19.0,16.0,29.91,West,270,20.0,23.0,88,0.00,,OVC090,0.00,VWS V14.00,2013-02-03 12:21:00,
2013-02-03 07:23:00,19.0,16.8,29.91,West,270,14.0,15.0,91,0.00,,OVC090,0.00,VWS V14.00,2013-02-03 12:23:00,
2013-02-03 07:25:00,19.0,17.6,29.91,West,270,24.0,24.0,94,0.00,,OVC090,0.00,VWS V14.00,2013-02-03 12:25:00,
2013-02-03 07:27:00,19.0,17.1,29.91,West,270,11.0,24.0,92,0.00,,OVC090,0.00,VWS V14.00,2013-02-03 12:27:00,
2013-02-03 07:29:00,19.0,17.6,29.91,West,270,14.0,20.0,94,0.00,,OVC090,0.00,VWS V14.00,2013-02-03 12:29:00,
2013-02-03 07:30:00,19.0,17.6,29.91,West,270,16.0,21.0,94,0.00,,OVC090,0.00,VWS V14.00,2013-02-03 12:30:00,
2013-02-03 07:33:00,19.0,18.0,29.91,WSW,247,11.0,17.0,96,0.00,,OVC090,0.00,VWS V14.00,2013-02-03 12:33:00,
2013-02-03 07:35:00,19.0,18.3,29.91,WNW,292,11.0,18.0,97,0.00,,OVC090,0.00,VWS V14.00,2013-02-03 12:35:00,
2013-02-03 07:37:00,19.0,18.0,29.91,West,270,13.0,20.0,96,0.00,,OVC090,0.00,VWS V14.00,2013-02-03 12:37:00,
2013-02-03 07:38:00,19.0,17.6,29.91,West,270,14.0,22.0,94,0.00,,OVC090,0.00,VWS V14.00,2013-02-03 12:38:00,
2013-02-03 07:40:00,19.0,17.8,29.91,West,270,16.0,22.0,95,0.00,,OVC090,0.00,VWS V14.00,2013-02-03 12:40:00,
2013-02-03 07:41:00,19.0,17.8,29.91,West,270,15.0,22.0,95,0.00,,OVC090,0.00,VWS V14.00,2013-02-03 12:41:00,
2013-02-03 07:43:00,19.0,18.3,29.91,West,270,18.0,18.0,97,0.00,,OVC090,0.00,VWS V14.00,2013-02-03 12:43:00,
2013-02-03 07:44:00,19.0,18.3,29.91,West,270,14.0,18.0,97,0.00,,OVC090,0.00,VWS V14.00,2013-02-03 12:44:00,
2013-02-03 07:46:00,19.0,18.3,29.91,NW,315,12.0,19.0,97,0.00,,OVC090,0.00,VWS V14.00,2013-02-03 12:46:00,
2013-02-03 07:49:00,18.0,17.3,29.91,West,270,13.0,18.0,97,0.00,,OVC090,0.00,VWS V14.00,2013-02-03 12:49:00,
2013-02-03 07:50:00,18.0,17.3,29.91,West,270,10.0,18.0,97,0.00,,OVC090,0.00,VWS V14.00,2013-02-03 12:50:00,
2013-02-03 07:52:00,19.0,18.8,29.91,NW,315,13.0,18.0,99,0.00,,OVC090,0.00,VWS V14.00,2013-02-03 12:52:00,
2013-02-03 07:55:00,18.0,17.3,29.92,West,270,15.0,18.0,97,0.00,,OVC090,0.00,VWS V14.00,2013-02-03 12:55:00,
2013-02-03 07:56:00,18.0,17.5,29.92,West,270,18.0,18.0,98,0.00,,OVC090,0.00,VWS V14.00,2013-02-03 12:56:00,
2013-02-03 07:57:00,18.0,17.8,29.92,West,270,13.0,19.0,99,0.00,,OVC090,0.00,VWS V14.00,2013-02-03 12:57:00,
2013-02-03 07:58:00,18.0,17.8,29.92,West,270,15.0,20.0,99,0.00,,OVC090,0.00,VWS V14.00,2013-02-03 12:58:00,
2013-02-03 08:02:00,18.0,17.3,29.92,WNW,292,19.0,20.0,97,0.00,,OVC033,0.00,VWS V14.00,2013-02-03 13:02:00,
2013-02-03 08:03:00,18.0,17.0,29.92,WNW,292,13.0,20.0,96,0.00,,OVC033,0.00,VWS V14.00,2013-02-03 13:03:00,
2013-02-03 08:04:00,18.0,17.5,29.92,West,270,12.0,18.0,98,0.00,,OVC033,0.00,VWS V14.00,2013-02-03 13:04:00,
2013-02-03 08:07:00,18.0,17.5,29.92,West,270,11.0,21.0,98,0.00,,OVC033,0.00,VWS V14.00,2013-02-03 13:07:00,
2013-02-03 08:08:00,18.0,17.8,29.92,West,270,12.0,17.0,99,0.00,,OVC033,0.00,VWS V14.00,2013-02-03 13:08:00,
2013-02-03 08:09:00,18.0,18.0,29.92,West,270,15.0,17.0,100,0.00,,OVC033,0.00,VWS V14.00,2013-02-03 13:09:00,
2013-02-03 08:13:00,18.0,17.8,29.92,West,270,15.0,18.0,99,0.00,,OVC033,0.00,VWS V14.00,2013-02-03 13:13:00,
2013-02-03 08:14:00,18.0,17.5,29.92,West,270,20.0,23.0,98,0.00,,OVC033,0.00,VWS V14.00,2013-02-03 13:14:00,
2013-02-03 08:15:00,18.0,17.5,29.92,West,270,11.0,23.0,98,0.00,,OVC033,0.00,VWS V14.00,2013-02-03 13:15:00,
2013-02-03 08:18:00,18.0,17.8,29.92,WNW,292,10.0,18.0,99,0.00,,OVC033,0.00,VWS V14.00,2013-02-03 13:18:00,
2013-02-03 08:19:00,18.0,17.8,29.92,West,270,19.0,19.0,99,0.00,,OVC033,0.00,VWS V14.00,2013-02-03 13:19:00,
2013-02-03 08:20:00,18.0,17.8,29.92,West,270,15.0,19.0,99,0.00,,OVC033,0.00,VWS V14.00,2013-02-03 13:20:00,
2013-02-03 08:22:00,18.0,18.0,29.92,West,270,13.0,19.0,100,0.00,,OVC033,0.00,VWS V14.00,2013-02-03 13:22:00,
2013-02-03 08:24:00,18.0,18.0,29.92,West,270,16.0,18.0,100,0.00,,OVC033,0.00,VWS V14.00,2013-02-03 13:24:00,
2013-02-03 08:26:00,18.0,17.8,29.92,West,270,19.0,20.0,99,0.00,,OVC033,0.00,VWS V14.00,2013-02-03 13:26:00,
2013-02-03 08:27:00,18.0,17.8,29.92,WNW,292,11.0,21.0,99,0.00,,OVC033,0.00,VWS V14.00,2013-02-03 13:27:00,
2013-02-03 08:32:00,18.0,18.0,29.92,WNW,292,15.0,20.0,100,0.00,,OVC033,0.00,VWS V14.00,2013-02-03 13:32:00,
2013-02-03 08:33:00,18.0,18.0,29.93,West,270,14.0,16.0,100,0.00,,OVC033,0.00,VWS V14.00,2013-02-03 13:33:00,
2013-02-03 08:34:00,18.0,18.0,29.93,West,270,19.0,20.0,100,0.00,,OVC033,0.00,VWS V14.00,2013-02-03 13:34:00,
2013-02-03 08:37:00,18.0,18.0,29.93,West,270,17.0,20.0,100,0.00,,OVC033,0.00,VWS V14.00,2013-02-03 13:37:00,
2013-02-03 08:38:00,18.0,18.0,29.93,WNW,292,15.0,20.0,100,0.00,,OVC033,0.00,VWS V14.00,2013-02-03 13:38:00,
2013-02-03 08:39:00,18.0,18.0,29.93,NW,315,17.0,18.0,100,0.00,,OVC033,0.00,VWS V14.00,2013-02-03 13:39:00,
2013-02-03 08:40:00,18.0,18.0,29.93,NW,315,15.0,18.0,100,0.00,,OVC033,0.00,VWS V14.00,2013-02-03 13:40:00,
2013-02-03 08:42:00,18.0,18.0,29.93,West,270,13.0,21.0,100,0.00,,OVC033,0.00,VWS V14.00,2013-02-03 13:42:00,
2013-02-03 08:43:00,18.0,18.0,29.93,WNW,292,11.0,16.0,100,0.00,,OVC033,0.00,VWS V14.00,2013-02-03 13:43:00,
2013-02-03 08:46:00,18.0,18.0,29.93,West,270,20.0,20.0,100,0.00,,OVC033,0.00,VWS V14.00,2013-02-03 13:46:00,
2013-02-03 08:48:00,18.0,17.8,29.93,WNW,292,15.0,20.0,99,0.00,,OVC033,0.00,VWS V14.00,2013-02-03 13:48:00,
2013-02-03 08:50:00,18.0,17.8,29.93,West,270,14.0,20.0,99,0.00,,OVC033,0.00,VWS V14.00,2013-02-03 13:50:00,
2013-02-03 08:51:00,18.0,17.8,29.93,West,270,16.0,20.0,99,0.00,,OVC033,0.00,VWS V14.00,2013-02-03 13:51:00,
2013-02-03 08:53:00,18.0,17.8,29.94,West,270,18.0,18.0,99,0.00,,OVC033,0.00,VWS V14.00,2013-02-03 13:53:00,
2013-02-03 08:54:00,18.0,17.8,29.94,West,270,16.0,18.0,99,0.00,,OVC033,0.00,VWS V14.00,2013-02-03 13:54:00,
2013-02-03 08:57:00,18.0,18.0,29.94,West,270,11.0,22.0,100,0.00,,OVC033,0.00,VWS V14.00,2013-02-03 13:57:00,
2013-02-03 08:59:00,18.0,18.0,29.94,West,270,13.0,19.0,100,0.00,,OVC033,0.00,VWS V14.00,2013-02-03 13:59:00,
2013-02-03 09:00:00,18.0,17.8,29.94,NW,315,10.0,19.0,99,0.00,,OVC033,0.00,VWS V14.00,2013-02-03 14:00:00,
2013-02-03 09:02:00,18.0,17.8,29.94,West,270,15.0,21.0,98,0.00,,OVC110,0.00,VWS V14.00,2013-02-03 14:02:00,
2013-02-03 09:04:00,18.0,18.0,29.93,West,270,12.0,16.0,100,0.00,,OVC110,0.00,VWS V14.00,2013-02-03 14:04:00,
2013-02-03 09:05:00,18.0,18.0,29.93,West,270,10.0,17.0,100,0.00,,OVC110,0.00,VWS V14.00,2013-02-03 14:05:00,
2013-02-03 09:07:00,18.0,17.8,29.93,NW,315,10.0,17.0,99,0.00,,OVC110,0.00,VWS V14.00,2013-02-03 14:07:00,
2013-02-03 09:09:00,18.0,17.8,29.93,WNW,292,11.0,16.0,99,0.00,,OVC110,0.00,VWS V14.00,2013-02-03 14:09:00,
2013-02-03 09:11:00,18.0,17.8,29.93,West,270,16.0,23.0,99,0.00,,OVC110,0.00,VWS V14.00,2013-02-03 14:11:00,
2013-02-03 09:12:00,18.0,17.8,29.93,West,270,16.0,23.0,99,0.00,,OVC110,0.00,VWS V14.00,2013-02-03 14:12:00,
2013-02-03 09:15:00,17.0,16.5,29.93,WNW,292,11.0,18.0,98,0.00,,OVC110,0.00,VWS V14.00,2013-02-03 14:15:00,
2013-02-03 09:16:00,18.0,17.5,29.93,WNW,292,11.0,18.0,98,0.00,,OVC110,0.00,VWS V14.00,2013-02-03 14:16:00,
2013-02-03 09:17:00,18.0,17.5,29.93,West,270,13.0,18.0,98,0.00,,OVC110,0.00,VWS V14.00,2013-02-03 14:17:00,
2013-02-03 09:18:00,18.0,17.8,29.93,West,270,8.0,16.0,99,0.00,,OVC110,0.00,VWS V14.00,2013-02-03 14:18:00,
2013-02-03 09:20:00,18.0,18.0,29.93,NW,315,8.0,17.0,100,0.00,,OVC110,0.00,VWS V14.00,2013-02-03 14:20:00,
2013-02-03 09:21:00,18.0,17.8,29.93,WNW,292,11.0,18.0,99,0.00,,OVC110,0.00,VWS V14.00,2013-02-03 14:21:00,
2013-02-03 09:23:00,18.0,17.8,29.93,West,270,13.0,18.0,99,0.00,,OVC110,0.00,VWS V14.00,2013-02-03 14:23:00,
2013-02-03 09:24:00,18.0,17.8,29.93,NW,315,10.0,17.0,99,0.00,,OVC110,0.00,VWS V14.00,2013-02-03 14:24:00,
2013-02-03 09:25:00,18.0,17.3,29.93,West,270,10.0,18.0,97,0.00,,OVC110,0.00,VWS V14.00,2013-02-03 14:25:00,
2013-02-03 09:27:00,17.0,16.1,29.93,WNW,292,13.0,18.0,96,0.00,,OVC110,0.00,VWS V14.00,2013-02-03 14:27:00,
2013-02-03 09:28:00,17.0,16.1,29.93,NW,315,8.0,10.0,96,0.00,,OVC110,0.00,VWS V14.00,2013-02-03 14:28:00,
2013-02-03 09:29:00,18.0,17.0,29.93,West,270,13.0,15.0,96,0.00,,OVC110,0.00,VWS V14.00,2013-02-03 14:29:00,
2013-02-03 09:31:00,17.0,16.3,29.93,West,270,11.0,20.0,97,0.00,,OVC110,0.00,VWS V14.00,2013-02-03 14:31:00,
2013-02-03 09:33:00,18.0,17.3,29.93,WNW,292,11.0,20.0,97,0.00,,OVC110,0.00,VWS V14.00,2013-02-03 14:33:00,
2013-02-03 09:35:00,18.0,17.8,29.93,NW,315,14.0,16.0,99,0.00,,OVC110,0.00,VWS V14.00,2013-02-03 14:35:00,
2013-02-03 09:36:00,18.0,17.3,29.93,NW,315,8.0,16.0,97,0.00,,OVC110,0.00,VWS V14.00,2013-02-03 14:36:00,
2013-02-03 09:38:00,18.0,17.0,29.93,NW,315,11.0,13.0,96,0.00,,OVC110,0.00,VWS V14.00,2013-02-03 14:38:00,
2013-02-03 09:42:00,18.0,16.6,29.93,NW,315,10.0,19.0,94,0.00,,OVC110,0.00,VWS V14.00,2013-02-03 14:42:00,
2013-02-03 09:44:00,17.0,15.8,29.93,NW,315,13.0,18.0,95,0.00,,OVC110,0.00,VWS V14.00,2013-02-03 14:44:00,
2013-02-03 09:45:00,18.0,16.8,29.93,WNW,292,14.0,18.0,95,0.00,,OVC110,0.00,VWS V14.00,2013-02-03 14:45:00,
2013-02-03 09:47:00,18.0,17.0,29.93,NW,315,15.0,19.0,96,0.00,,OVC110,0.00,VWS V14.00,2013-02-03 14:47:00,
2013-02-03 09:48:00,18.0,17.0,29.93,WNW,292,11.0,11.0,96,0.00,,OVC110,0.00,VWS V14.00,2013-02-03 14:48:00,
2013-02-03 09:49:00,18.0,17.0,29.93,NW,315,11.0,14.0,96,0.00,,OVC110,0.00,VWS V14.00,2013-02-03 14:49:00,
2013-02-03 09:51:00,17.0,15.8,29.93,NW,315,13.0,18.0,95,0.00,,OVC110,0.00,VWS V14.00,2013-02-03 14:51:00,
2013-02-03 09:53:00,18.0,16.8,29.93,WNW,292,12.0,15.0,95,0.00,,OVC110,0.00,VWS V14.00,2013-02-03 14:53:00,
2013-02-03 09:55:00,18.0,17.0,29.93,WNW,292,15.0,17.0,96,0.00,,OVC110,0.00,VWS V14.00,2013-02-03 14:55:00,
2013-02-03 09:56:00,18.0,16.6,29.93,WNW,292,10.0,17.0,94,0.00,,OVC110,0.00,VWS V14.00,2013-02-03 14:56:00,
2013-02-03 09:58:00,18.0,16.8,29.93,NW,315,13.0,20.0,95,0.00,,OVC110,0.00,VWS V14.00,2013-02-03 14:58:00,
2013-02-03 09:59:00,17.0,15.8,29.93,WNW,292,17.0,20.0,95,0.00,,OVC110,0.00,VWS V14.00,2013-02-03 14:59:00,
2013-02-03 10:02:00,17.0,15.6,29.93,NW,315,18.0,20.0,94,0.00,,OVC100,0.00,VWS V14.00,2013-02-03 15:02:00,
2013-02-03 10:03:00,18.0,16.8,29.92,WNW,292,16.0,16.0,95,0.00,,OVC100,0.00,VWS V14.00,2013-02-03 15:03:00,
2013-02-03 10:04:00,17.0,15.8,29.92,NW,315,17.0,21.0,95,0.00,,OVC100,0.00,VWS V14.00,2013-02-03 15:04:00,
2013-02-03 10:05:00,17.0,15.8,29.92,NW,315,17.0,21.0,95,0.00,,OVC100,0.00,VWS V14.00,2013-02-03 15:05:00,
2013-02-03 10:08:00,18.0,17.3,29.92,NW,315,17.0,21.0,97,0.00,,OVC100,0.00,VWS V14.00,2013-02-03 15:08:00,
2013-02-03 10:10:00,17.0,15.6,29.92,NW,315,15.0,20.0,94,0.00,,OVC100,0.00,VWS V14.00,2013-02-03 15:10:00,
2013-02-03 10:12:00,18.0,17.3,29.92,WNW,292,10.0,20.0,97,0.00,,OVC100,0.00,VWS V14.00,2013-02-03 15:12:00,
2013-02-03 10:14:00,18.0,16.8,29.93,West,270,12.0,16.0,95,0.00,,OVC100,0.00,VWS V14.00,2013-02-03 15:14:00,
2013-02-03 10:15:00,17.0,16.1,29.93,NW,315,11.0,16.0,96,0.00,,OVC100,0.00,VWS V14.00,2013-02-03 15:15:00,
2013-02-03 10:18:00,17.0,16.3,29.93,NW,315,16.0,20.0,97,0.00,,OVC100,0.00,VWS V14.00,2013-02-03 15:18:00,
2013-02-03 10:19:00,17.0,15.8,29.93,NW,315,10.0,18.0,95,0.00,,OVC100,0.00,VWS V14.00,2013-02-03 15:19:00,
2013-02-03 10:20:00,17.0,15.8,29.93,NW,315,13.0,18.0,95,0.00,,OVC100,0.00,VWS V14.00,2013-02-03 15:20:00,
2013-02-03 10:23:00,17.0,15.6,29.93,NW,315,15.0,16.0,96,0.00,,OVC100,0.00,VWS V14.00,2013-02-03 15:23:00,
2013-02-03 10:25:00,17.0,15.8,29.93,West,270,13.0,16.0,95,0.00,,OVC100,0.00,VWS V14.00,2013-02-03 15:25:00,
2013-02-03 10:26:00,17.0,15.8,29.93,West,270,12.0,16.0,95,0.00,,OVC100,0.00,VWS V14.00,2013-02-03 15:26:00,
2013-02-03 10:29:00,18.0,16.6,29.93,West,270,11.0,14.0,94,0.00,,OVC100,0.00,VWS V14.00,2013-02-03 15:29:00,
2013-02-03 10:30:00,18.0,17.0,29.93,NW,315,10.0,15.0,96,0.00,,OVC100,0.00,VWS V14.00,2013-02-03 15:30:00,
2013-02-03 10:31:00,18.0,17.0,29.93,NW,315,13.0,16.0,96,0.00,,OVC100,0.00,VWS V14.00,2013-02-03 15:31:00,
2013-02-03 10:32:00,18.0,17.0,29.93,NW,315,15.0,16.0,96,0.00,,OVC100,0.00,VWS V14.00,2013-02-03 15:32:00,
2013-02-03 10:35:00,18.0,17.0,29.93,WNW,292,8.0,15.0,96,0.00,,OVC100,0.00,VWS V14.00,2013-02-03 15:35:00,
2013-02-03 10:36:00,18.0,17.0,29.93,West,270,9.0,15.0,96,0.00,,OVC100,0.00,VWS V14.00,2013-02-03 15:36:00,
2013-02-03 10:37:00,18.0,16.6,29.93,West,270,9.0,17.0,94,0.00,,OVC100,0.00,VWS V14.00,2013-02-03 15:37:00,
2013-02-03 10:39:00,18.0,16.6,29.93,West,270,15.0,15.0,94,0.00,,OVC100,0.00,VWS V14.00,2013-02-03 15:39:00,
2013-02-03 10:41:00,18.0,16.3,29.93,NW,315,10.0,16.0,93,0.00,,OVC100,0.00,VWS V14.00,2013-02-03 15:41:00,
2013-02-03 10:42:00,18.0,16.3,29.93,NW,315,9.0,16.0,93,0.00,,OVC100,0.00,VWS V14.00,2013-02-03 15:42:00,
2013-02-03 10:43:00,18.0,16.6,29.93,WNW,292,12.0,17.0,94,0.00,,OVC100,0.00,VWS V14.00,2013-02-03 15:43:00,
2013-02-03 10:44:00,18.0,16.6,29.94,West,270,11.0,15.0,94,0.00,,OVC100,0.00,VWS V14.00,2013-02-03 15:44:00,
2013-02-03 10:47:00,18.0,16.6,29.94,West,270,10.0,16.0,94,0.00,,OVC100,0.00,VWS V14.00,2013-02-03 15:47:00,
2013-02-03 10:48:00,18.0,16.8,29.94,West,270,11.0,16.0,95,0.00,,OVC100,0.00,VWS V14.00,2013-02-03 15:48:00,
2013-02-03 10:49:00,18.0,16.8,29.94,West,270,8.0,13.0,95,0.00,,OVC100,0.00,VWS V14.00,2013-02-03 15:49:00,
2013-02-03 10:52:00,18.0,16.6,29.94,WNW,292,12.0,16.0,94,0.00,,OVC100,0.00,VWS V14.00,2013-02-03 15:52:00,
2013-02-03 10:53:00,18.0,16.6,29.94,NW,315,13.0,13.0,94,0.00,,OVC100,0.00,VWS V14.00,2013-02-03 15:53:00,
2013-02-03 10:54:00,18.0,16.3,29.94,WNW,292,11.0,16.0,93,0.00,,OVC100,0.00,VWS V14.00,2013-02-03 15:54:00,
2013-02-03 10:57:00,18.0,16.8,29.94,NW,315,13.0,16.0,95,0.00,,OVC100,0.00,VWS V14.00,2013-02-03 15:57:00,
2013-02-03 10:58:00,18.0,16.6,29.94,NW,315,14.0,15.0,94,0.00,,OVC100,0.00,VWS V14.00,2013-02-03 15:58:00,
2013-02-03 10:59:00,18.0,16.6,29.94,West,270,11.0,15.0,94,0.00,,OVC100,0.00,VWS V14.00,2013-02-03 15:59:00,
2013-02-03 11:00:00,18.0,16.6,29.94,NW,315,10.0,15.0,94,0.00,,OVC100,0.00,VWS V14.00,2013-02-03 16:00:00,
2013-02-03 11:03:00,18.0,16.6,29.94,WNW,292,16.0,16.0,94,0.00,,OVC026,0.00,VWS V14.00,2013-02-03 16:03:00,
2013-02-03 11:04:00,18.0,16.6,29.94,WNW,292,11.0,18.0,94,0.00,,OVC026,0.00,VWS V14.00,2013-02-03 16:04:00,
2013-02-03 11:06:00,18.0,16.8,29.94,WNW,292,13.0,18.0,95,0.00,,OVC026,0.00,VWS V14.00,2013-02-03 16:06:00,
2013-02-03 11:08:00,18.0,16.1,29.94,West,270,11.0,14.0,92,0.00,,OVC026,0.00,VWS V14.00,2013-02-03 16:08:00,
2013-02-03 11:09:00,18.0,16.1,29.94,West,270,14.0,14.0,92,0.00,,OVC026,0.00,VWS V14.00,2013-02-03 16:09:00,
2013-02-03 11:10:00,18.0,16.1,29.94,West,270,11.0,14.0,92,0.00,,OVC026,0.00,VWS V14.00,2013-02-03 16:10:00,
2013-02-03 11:11:00,18.0,16.3,29.94,NW,315,12.0,16.0,93,0.00,,OVC026,0.00,VWS V14.00,2013-02-03 16:11:00,
2013-02-03 11:13:00,18.0,16.6,29.94,West,270,14.0,14.0,94,0.00,,OVC026,0.00,VWS V14.00,2013-02-03 16:13:00,
2013-02-03 11:15:00,18.0,16.3,29.94,West,270,10.0,14.0,93,0.00,,OVC026,0.00,VWS V14.00,2013-02-03 16:15:00,
2013-02-03 11:17:00,18.0,16.6,29.94,NW,315,13.0,16.0,94,0.00,,OVC026,0.00,VWS V14.00,2013-02-03 16:17:00,
2013-02-03 11:19:00,18.0,16.8,29.94,West,270,12.0,15.0,95,0.00,,OVC026,0.00,VWS V14.00,2013-02-03 16:19:00,
2013-02-03 11:21:00,18.0,17.0,29.94,WNW,292,9.0,17.0,96,0.00,,OVC026,0.00,VWS V14.00,2013-02-03 16:21:00,
2013-02-03 11:22:00,18.0,17.0,29.94,WNW,292,9.0,17.0,96,0.00,,OVC026,0.00,VWS V14.00,2013-02-03 16:22:00,
2013-02-03 11:24:00,18.0,16.8,29.93,NW,315,10.0,18.0,95,0.00,,OVC026,0.00,VWS V14.00,2013-02-03 16:24:00,
2013-02-03 11:25:00,18.0,17.0,29.93,WNW,292,13.0,18.0,96,0.00,,OVC026,0.00,VWS V14.00,2013-02-03 16:25:00,
2013-02-03 11:27:00,18.0,16.8,29.93,West,270,15.0,18.0,95,0.00,,OVC026,0.00,VWS V14.00,2013-02-03 16:27:00,
2013-02-03 11:31:00,18.0,17.0,29.93,West,270,9.0,16.0,96,0.00,,OVC026,0.00,VWS V14.00,2013-02-03 16:31:00,
2013-02-03 11:32:00,18.0,17.0,29.93,WNW,292,13.0,16.0,96,0.00,,OVC026,0.00,VWS V14.00,2013-02-03 16:32:00,
2013-02-03 11:33:00,18.0,17.0,29.93,West,270,11.0,13.0,96,0.00,,OVC026,0.00,VWS V14.00,2013-02-03 16:33:00,
2013-02-03 11:34:00,18.0,17.0,29.94,West,270,17.0,17.0,96,0.00,,OVC026,0.00,VWS V14.00,2013-02-03 16:34:00,
2013-02-03 11:36:00,18.0,17.0,29.94,West,270,15.0,19.0,96,0.00,,OVC026,0.00,VWS V14.00,2013-02-03 16:36:00,
2013-02-03 11:37:00,18.0,17.0,29.94,NW,315,13.0,19.0,96,0.00,,OVC026,0.00,VWS V14.00,2013-02-03 16:37:00,
2013-02-03 11:40:00,18.0,17.0,29.94,West,270,10.0,18.0,96,0.00,,OVC026,0.00,VWS V14.00,2013-02-03 16:40:00,
2013-02-03 11:42:00,18.0,17.3,29.94,West,270,13.0,18.0,97,0.00,,OVC026,0.00,VWS V14.00,2013-02-03 16:42:00,
2013-02-03 11:45:00,18.0,17.0,29.93,WSW,247,13.0,16.0,96,0.00,,OVC026,0.00,VWS V14.00,2013-02-03 16:45:00,
2013-02-03 11:46:00,18.0,17.0,29.93,WNW,292,12.0,16.0,96,0.00,,OVC026,0.00,VWS V14.00,2013-02-03 16:46:00,
2013-02-03 11:48:00,18.0,17.5,29.93,West,270,13.0,18.0,98,0.00,,OVC026,0.00,VWS V14.00,2013-02-03 16:48:00,
2013-02-03 11:50:00,18.0,17.0,29.93,West,270,13.0,17.0,96,0.00,,OVC026,0.00,VWS V14.00,2013-02-03 16:50:00,
2013-02-03 11:51:00,18.0,17.0,29.93,West,270,12.0,17.0,96,0.00,,OVC026,0.00,VWS V14.00,2013-02-03 16:51:00,
2013-02-03 11:53:00,18.0,17.0,29.93,West,270,16.0,16.0,96,0.00,,OVC026,0.00,VWS V14.00,2013-02-03 16:53:00,
2013-02-03 11:55:00,18.0,17.0,29.93,West,270,13.0,17.0,96,0.00,,OVC026,0.00,VWS V14.00,2013-02-03 16:55:00,
2013-02-03 11:57:00,18.0,17.0,29.93,WNW,292,10.0,17.0,96,0.00,,OVC026,0.00,VWS V14.00,2013-02-03 16:57:00,
2013-02-03 11:58:00,18.0,17.0,29.93,West,270,15.0,16.0,96,0.00,,OVC026,0.00,VWS V14.00,2013-02-03 16:58:00,
2013-02-03 12:00:00,18.0,17.0,29.93,West,270,15.0,18.0,96,0.00,,OVC026,0.00,VWS V14.00,2013-02-03 17:00:00,
2013-02-03 12:01:00,18.0,17.0,29.93,West,270,10.0,18.0,96,0.00,,OVC026,0.00,VWS V14.00,2013-02-03 17:01:00,
2013-02-03 12:02:00,18.0,17.3,29.93,West,270,13.0,18.0,97,0.00,,,0.00,VWS V14.00,2013-02-03 17:02:00,
2013-02-03 12:04:00,18.0,17.0,29.93,WNW,292,13.0,16.0,96,0.00,,,0.00,VWS V14.00,2013-02-03 17:04:00,
2013-02-03 12:06:00,18.0,17.0,29.93,NW,315,10.0,16.0,96,0.00,,,0.00,VWS V14.00,2013-02-03 17:06:00,
2013-02-03 12:08:00,18.0,17.0,29.93,West,270,13.0,15.0,96,0.00,,,0.00,VWS V14.00,2013-02-03 17:08:00,
2013-02-03 12:10:00,19.0,18.0,29.93,WNW,292,8.0,16.0,96,0.00,,,0.00,VWS V14.00,2013-02-03 17:10:00,
2013-02-03 12:11:00,19.0,18.0,29.93,West,270,11.0,16.0,96,0.00,,,0.00,VWS V14.00,2013-02-03 17:11:00,
2013-02-03 12:13:00,18.0,17.0,29.93,West,270,16.0,16.0,96,0.00,,,0.00,VWS V14.00,2013-02-03 17:13:00,
2013-02-03 12:15:00,18.0,16.6,29.92,West,270,8.0,16.0,94,0.00,,,0.00,VWS V14.00,2013-02-03 17:15:00,
2013-02-03 12:16:00,18.0,16.6,29.92,West,270,13.0,16.0,94,0.00,,,0.00,VWS V14.00,2013-02-03 17:16:00,
2013-02-03 12:18:00,18.0,16.8,29.92,West,270,12.0,16.0,95,0.00,,,0.00,VWS V14.00,2013-02-03 17:18:00,
2013-02-03 12:20:00,18.0,16.8,29.92,West,270,8.0,15.0,95,0.00,,,0.00,VWS V14.00,2013-02-03 17:20:00,
2013-02-03 12:22:00,18.0,17.0,29.92,West,270,16.0,16.0,96,0.00,,,0.00,VWS V14.00,2013-02-03 17:22:00,
2013-02-03 12:23:00,18.0,16.8,29.92,West,270,13.0,17.0,95,0.00,,,0.00,VWS V14.00,2013-02-03 17:23:00,
2013-02-03 12:27:00,18.0,16.8,29.92,West,270,9.0,16.0,95,0.00,,,0.00,VWS V14.00,2013-02-03 17:27:00,
2013-02-03 12:28:00,18.0,16.8,29.92,West,270,13.0,16.0,95,0.00,,,0.00,VWS V14.00,2013-02-03 17:28:00,
2013-02-03 12:33:00,18.0,16.6,29.92,West,270,10.0,18.0,94,0.00,,,0.00,VWS V14.00,2013-02-03 17:33:00,
2013-02-03 12:34:00,18.0,16.8,29.91,West,270,9.0,16.0,95,0.00,,,0.00,VWS V14.00,2013-02-03 17:34:00,
2013-02-03 12:38:00,18.0,16.6,29.91,West,270,13.0,18.0,94,0.00,,,0.00,VWS V14.00,2013-02-03 17:38:00,
2013-02-03 12:39:00,18.0,16.6,29.91,West,270,11.0,15.0,94,0.00,,,0.00,VWS V14.00,2013-02-03 17:39:00,
2013-02-03 12:40:00,19.0,17.6,29.91,West,270,14.0,15.0,94,0.00,,,0.00,VWS V14.00,2013-02-03 17:40:00,
2013-02-03 12:43:00,19.0,17.1,29.92,West,270,11.0,15.0,92,0.00,,,0.00,VWS V14.00,2013-02-03 17:43:00,
2013-02-03 12:44:00,19.0,17.1,29.92,West,270,9.0,15.0,92,0.00,,,0.00,VWS V14.00,2013-02-03 17:44:00,
2013-02-03 12:45:00,19.0,17.1,29.92,WSW,247,13.0,15.0,92,0.00,,,0.00,VWS V14.00,2013-02-03 17:45:00,
2013-02-03 12:46:00,19.0,17.3,29.92,West,270,12.0,15.0,93,0.00,,,0.00,VWS V14.00,2013-02-03 17:46:00,
2013-02-03 12:48:00,19.0,17.6,29.92,West,270,9.0,13.0,94,0.00,,,0.00,VWS V14.00,2013-02-03 17:48:00,
2013-02-03 12:50:00,19.0,16.3,29.92,West,270,15.0,17.0,95,0.00,,,0.00,VWS V14.00,2013-02-03 17:50:00,
2013-02-03 12:51:00,18.0,16.3,29.92,West,270,12.0,17.0,93,0.00,,,0.00,VWS V14.00,2013-02-03 17:51:00,
2013-02-03 12:52:00,19.0,17.6,29.92,West,270,16.0,17.0,94,0.00,,,0.00,VWS V14.00,2013-02-03 17:52:00,
2013-02-03 12:54:00,19.0,17.6,29.92,West,270,11.0,15.0,94,0.00,,,0.00,VWS V14.00,2013-02-03 17:54:00,
2013-02-03 12:56:00,18.0,16.6,29.92,West,270,15.0,18.0,94,0.00,,,0.00,VWS V14.00,2013-02-03 17:56:00,
2013-02-03 12:58:00,18.0,16.1,29.92,West,270,15.0,18.0,92,0.00,,,0.00,VWS V14.00,2013-02-03 17:58:00,
2013-02-03 12:59:00,18.0,16.1,29.92,West,270,15.0,18.0,92,0.00,,,0.00,VWS V14.00,2013-02-03 17:59:00,
2013-02-03 13:01:00,18.0,16.3,29.92,West,270,8.0,20.0,93,0.00,,OVC024,0.00,VWS V14.00,2013-02-03 18:01:00,
2013-02-03 13:02:00,18.0,16.6,29.92,West,270,11.0,20.0,93,0.00,,OVC024,0.00,VWS V14.00,2013-02-03 18:02:00,
2013-02-03 13:04:00,18.0,16.6,29.91,West,270,15.0,19.0,94,0.00,,OVC024,0.00,VWS V14.00,2013-02-03 18:04:00,
2013-02-03 13:07:00,18.0,17.0,29.91,WNW,292,12.0,19.0,96,0.00,,OVC024,0.00,VWS V14.00,2013-02-03 18:07:00,
2013-02-03 13:08:00,18.0,17.0,29.91,NW,315,10.0,12.0,96,0.00,,OVC024,0.00,VWS V14.00,2013-02-03 18:08:00,
2013-02-03 13:10:00,18.0,16.8,29.91,West,270,16.0,20.0,95,0.00,,OVC024,0.00,VWS V14.00,2013-02-03 18:10:00,
2013-02-03 13:13:00,18.0,17.0,29.91,West,270,14.0,20.0,96,0.00,,OVC024,0.00,VWS V14.00,2013-02-03 18:13:00,
2013-02-03 13:14:00,18.0,17.0,29.92,West,270,14.0,18.0,96,0.00,,OVC024,0.00,VWS V14.00,2013-02-03 18:14:00,
2013-02-03 13:15:00,18.0,16.8,29.92,WNW,292,10.0,18.0,95,0.00,,OVC024,0.00,VWS V14.00,2013-02-03 18:15:00,
2013-02-03 13:18:00,18.0,16.6,29.92,West,270,8.0,18.0,94,0.00,,OVC024,0.00,VWS V14.00,2013-02-03 18:18:00,
2013-02-03 13:19:00,18.0,17.0,29.92,West,270,16.0,18.0,96,0.00,,OVC024,0.00,VWS V14.00,2013-02-03 18:19:00,
2013-02-03 13:21:00,18.0,16.8,29.92,WNW,292,12.0,18.0,95,0.00,,OVC024,0.00,VWS V14.00,2013-02-03 18:21:00,
2013-02-03 13:23:00,18.0,17.0,29.92,West,270,17.0,17.0,96,0.00,,OVC024,0.00,VWS V14.00,2013-02-03 18:23:00,
2013-02-03 13:24:00,18.0,16.6,29.91,West,270,16.0,20.0,94,0.00,,OVC024,0.00,VWS V14.00,2013-02-03 18:24:00,
2013-02-03 13:26:00,18.0,17.0,29.91,WNW,292,15.0,20.0,96,0.00,,OVC024,0.00,VWS V14.00,2013-02-03 18:26:00,
2013-02-03 13:28:00,18.0,16.8,29.91,West,270,15.0,16.0,95,0.00,,OVC024,0.00,VWS V14.00,2013-02-03 18:28:00,
2013-02-03 13:29:00,18.0,16.6,29.91,West,270,12.0,17.0,94,0.00,,OVC024,0.00,VWS V14.00,2013-02-03 18:29:00,
2013-02-03 13:31:00,18.0,16.6,29.91,West,270,17.0,18.0,94,0.00,,OVC024,0.00,VWS V14.00,2013-02-03 18:31:00,
2013-02-03 13:32:00,18.0,17.0,29.91,WNW,292,7.0,20.0,96,0.00,,OVC024,0.00,VWS V14.00,2013-02-03 18:32:00,
2013-02-03 13:35:00,18.0,17.0,29.91,West,270,15.0,16.0,96,0.00,,OVC024,0.00,VWS V14.00,2013-02-03 18:35:00,
2013-02-03 13:36:00,18.0,16.8,29.91,West,270,13.0,20.0,95,0.00,,OVC024,0.00,VWS V14.00,2013-02-03 18:36:00,
2013-02-03 13:37:00,18.0,16.6,29.91,West,270,9.0,20.0,94,0.00,,OVC024,0.00,VWS V14.00,2013-02-03 18:37:00,
2013-02-03 13:40:00,18.0,16.8,29.91,West,270,13.0,19.0,95,0.00,,OVC024,0.00,VWS V14.00,2013-02-03 18:40:00,
2013-02-03 13:41:00,18.0,16.6,29.91,West,270,11.0,19.0,94,0.00,,OVC024,0.00,VWS V14.00,2013-02-03 18:41:00,
2013-02-03 13:43:00,18.0,16.6,29.91,West,270,15.0,20.0,94,0.00,,OVC024,0.00,VWS V14.00,2013-02-03 18:43:00,
2013-02-03 13:46:00,18.0,16.6,29.91,West,270,11.0,18.0,94,0.00,,OVC024,0.00,VWS V14.00,2013-02-03 18:46:00,
2013-02-03 13:48:00,19.0,17.3,29.91,West,270,16.0,18.0,93,0.00,,OVC024,0.00,VWS V14.00,2013-02-03 18:48:00,
2013-02-03 13:51:00,18.0,16.6,29.91,WNW,292,14.0,20.0,94,0.00,,OVC024,0.00,VWS V14.00,2013-02-03 18:51:00,
2013-02-03 13:53:00,18.0,16.6,29.91,West,270,11.0,20.0,94,0.00,,OVC024,0.00,VWS V14.00,2013-02-03 18:53:00,
2013-02-03 13:54:00,18.0,16.8,29.92,West,270,13.0,16.0,95,0.00,,OVC024,0.00,VWS V14.00,2013-02-03 18:54:00,
2013-02-03 13:57:00,18.0,17.0,29.92,West,270,14.0,18.0,96,0.00,,OVC024,0.00,VWS V14.00,2013-02-03 18:57:00,
2013-02-03 13:58:00,18.0,17.0,29.92,WNW,292,8.0,13.0,96,0.00,,OVC024,0.00,VWS V14.00,2013-02-03 18:58:00,
2013-02-03 14:00:00,18.0,16.6,29.92,WNW,292,10.0,18.0,94,0.00,,OVC024,0.00,VWS V14.00,2013-02-03 19:00:00,
2013-02-03 14:02:00,18.0,16.6,29.92,West,270,17.0,18.0,94,0.00,,BKN060,0.00,VWS V14.00,2013-02-03 19:02:00,
2013-02-03 14:04:00,18.0,17.0,29.91,WNW,292,15.0,17.0,96,0.00,,BKN060,0.00,VWS V14.00,2013-02-03 19:04:00,
2013-02-03 14:06:00,18.0,17.3,29.91,West,270,13.0,18.0,97,0.00,,BKN060,0.00,VWS V14.00,2013-02-03 19:06:00,
2013-02-03 14:09:00,18.0,17.0,29.91,WNW,292,13.0,16.0,96,0.00,,BKN060,0.00,VWS V14.00,2013-02-03 19:09:00,
2013-02-03 14:10:00,19.0,18.0,29.91,NW,315,9.0,16.0,96,0.00,,BKN060,0.00,VWS V14.00,2013-02-03 19:10:00,
2013-02-03 14:12:00,19.0,17.8,29.91,West,270,15.0,18.0,95,0.00,,BKN060,0.00,VWS V14.00,2013-02-03 19:12:00,
2013-02-03 14:14:00,18.0,16.1,29.91,West,270,11.0,19.0,94,0.00,,BKN060,0.00,VWS V14.00,2013-02-03 19:14:00,
2013-02-03 14:16:00,18.0,16.6,29.91,WNW,292,8.0,19.0,94,0.00,,BKN060,0.00,VWS V14.00,2013-02-03 19:16:00,
2013-02-03 14:18:00,18.0,16.6,29.91,West,270,16.0,20.0,94,0.00,,BKN060,0.00,VWS V14.00,2013-02-03 19:18:00,
2013-02-03 14:20:00,18.0,16.3,29.91,West,270,14.0,20.0,93,0.00,,BKN060,0.00,VWS V14.00,2013-02-03 19:20:00,
2013-02-03 14:21:00,18.0,16.3,29.91,West,270,12.0,20.0,93,0.00,,BKN060,0.00,VWS V14.00,2013-02-03 19:21:00,
2013-02-03 14:23:00,18.0,16.3,29.91,West,270,14.0,16.0,93,0.00,,BKN060,0.00,VWS V14.00,2013-02-03 19:23:00,
2013-02-03 14:24:00,18.0,16.1,29.92,West,270,13.0,16.0,92,0.00,,BKN060,0.00,VWS V14.00,2013-02-03 19:24:00,
2013-02-03 14:25:00,18.0,16.6,29.92,West,270,15.0,16.0,94,0.00,,BKN060,0.00,VWS V14.00,2013-02-03 19:25:00,
2013-02-03 14:27:00,18.0,16.6,29.92,West,270,16.0,17.0,94,0.00,,BKN060,0.00,VWS V14.00,2013-02-03 19:27:00,
2013-02-03 14:28:00,18.0,16.6,29.92,West,270,16.0,18.0,94,0.00,,BKN060,0.00,VWS V14.00,2013-02-03 19:28:00,
2013-02-03 14:29:00,18.0,16.6,29.92,West,270,16.0,18.0,94,0.00,,BKN060,0.00,VWS V14.00,2013-02-03 19:29:00,
2013-02-03 14:33:00,18.0,17.0,29.92,West,270,13.0,14.0,96,0.00,,BKN060,0.00,VWS V14.00,2013-02-03 19:33:00,
2013-02-03 14:34:00,18.0,17.0,29.92,WNW,292,8.0,15.0,96,0.00,,BKN060,0.00,VWS V14.00,2013-02-03 19:34:00,
2013-02-03 14:38:00,18.0,16.6,29.92,WSW,247,18.0,20.0,94,0.00,,BKN060,0.00,VWS V14.00,2013-02-03 19:38:00,
2013-02-03 14:39:00,18.0,16.6,29.92,West,270,12.0,20.0,94,0.00,,BKN060,0.00,VWS V14.00,2013-02-03 19:39:00,
2013-02-03 14:44:00,18.0,17.0,29.91,West,270,17.0,18.0,96,0.00,,BKN060,0.00,VWS V14.00,2013-02-03 19:44:00,
2013-02-03 14:45:00,18.0,17.0,29.91,West,270,16.0,20.0,96,0.00,,BKN060,0.00,VWS V14.00,2013-02-03 19:45:00,
2013-02-03 14:47:00,18.0,17.0,29.91,West,270,12.0,20.0,96,0.00,,BKN060,0.00,VWS V14.00,2013-02-03 19:47:00,
2013-02-03 14:49:00,18.0,16.8,29.91,WNW,292,16.0,20.0,95,0.00,,BKN060,0.00,VWS V14.00,2013-02-03 19:49:00,
2013-02-03 14:50:00,18.0,16.6,29.91,West,270,10.0,20.0,94,0.00,,BKN060,0.00,VWS V14.00,2013-02-03 19:50:00,
2013-02-03 14:51:00,19.0,18.0,29.91,West,270,14.0,22.0,96,0.00,,BKN060,0.00,VWS V14.00,2013-02-03 19:51:00,
2013-02-03 14:53:00,19.0,18.0,29.91,SW,225,13.0,22.0,96,0.00,,BKN060,0.00,VWS V14.00,2013-02-03 19:53:00,
2013-02-03 14:55:00,19.0,17.8,29.92,West,270,7.0,19.0,95,0.00,,BKN060,0.00,VWS V14.00,2013-02-03 19:55:00,
2013-02-03 14:56:00,19.0,17.8,29.92,West,270,13.0,19.0,95,0.00,,BKN060,0.00,VWS V14.00,2013-02-03 19:56:00,
2013-02-03 14:57:00,19.0,17.6,29.92,West,270,16.0,21.0,94,0.00,,BKN060,0.00,VWS V14.00,2013-02-03 19:57:00,
2013-02-03 14:58:00,19.0,17.6,29.92,West,270,16.0,18.0,94,0.00,,BKN060,0.00,VWS V14.00,2013-02-03 19:58:00,
2013-02-03 15:01:00,19.0,17.6,29.92,West,270,16.0,22.0,94,0.00,,BKN100,0.00,VWS V14.00,2013-02-03 20:01:00,
2013-02-03 15:02:00,19.0,17.8,29.92,West,270,14.0,22.0,95,0.00,,BKN100,0.00,VWS V14.00,2013-02-03 20:02:00,
2013-02-03 15:03:00,18.0,16.6,29.92,West,270,18.0,20.0,94,0.00,,BKN100,0.00,VWS V14.00,2013-02-03 20:03:00,
2013-02-03 15:05:00,19.0,17.6,29.92,West,270,18.0,22.0,94,0.00,,BKN100,0.00,VWS V14.00,2013-02-03 20:05:00,
2013-02-03 15:07:00,19.0,18.3,29.92,West,270,11.0,22.0,97,0.00,,BKN100,0.00,VWS V14.00,2013-02-03 20:07:00,
2013-02-03 15:08:00,19.0,18.0,29.92,West,270,18.0,20.0,96,0.00,,BKN100,0.00,VWS V14.00,2013-02-03 20:08:00,
2013-02-03 15:09:00,19.0,18.0,29.92,West,270,15.0,20.0,96,0.00,,BKN100,0.00,VWS V14.00,2013-02-03 20:09:00,
2013-02-03 15:10:00,19.0,18.0,29.92,West,270,11.0,20.0,96,0.00,,BKN100,0.00,VWS V14.00,2013-02-03 20:10:00,
2013-02-03 15:13:00,19.0,18.5,29.92,West,270,22.0,22.0,98,0.00,,BKN100,0.00,VWS V14.00,2013-02-03 20:13:00,
2013-02-03 15:14:00,19.0,18.0,29.92,West,270,17.0,22.0,96,0.00,,BKN100,0.00,VWS V14.00,2013-02-03 20:14:00,
2013-02-03 15:15:00,19.0,18.3,29.92,West,270,15.0,22.0,97,0.00,,BKN100,0.00,VWS V14.00,2013-02-03 20:15:00,
2013-02-03 15:16:00,19.0,18.3,29.92,West,270,13.0,22.0,97,0.00,,BKN100,0.00,VWS V14.00,2013-02-03 20:16:00,
2013-02-03 15:18:00,19.0,18.0,29.92,West,270,13.0,22.0,96,0.00,,BKN100,0.00,VWS V14.00,2013-02-03 20:18:00,
2013-02-03 15:20:00,18.0,17.3,29.92,West,270,16.0,22.0,97,0.00,,BKN100,0.00,VWS V14.00,2013-02-03 20:20:00,
2013-02-03 15:21:00,19.0,18.3,29.92,West,270,10.0,22.0,97,0.00,,BKN100,0.00,VWS V14.00,2013-02-03 20:21:00,
2013-02-03 15:23:00,19.0,18.3,29.92,West,270,17.0,19.0,97,0.00,,BKN100,0.00,VWS V14.00,2013-02-03 20:23:00,
2013-02-03 15:25:00,19.0,18.8,29.92,WSW,247,13.0,19.0,99,0.00,,BKN100,0.00,VWS V14.00,2013-02-03 20:25:00,
2013-02-03 15:26:00,19.0,18.5,29.92,West,270,13.0,23.0,98,0.00,,BKN100,0.00,VWS V14.00,2013-02-03 20:26:00,
2013-02-03 15:27:00,19.0,18.5,29.92,West,270,11.0,23.0,98,0.00,,BKN100,0.00,VWS V14.00,2013-02-03 20:27:00,
2013-02-03 15:29:00,19.0,18.8,29.92,West,270,23.0,23.0,99,0.00,,BKN100,0.00,VWS V14.00,2013-02-03 20:29:00,
2013-02-03 15:30:00,19.0,18.3,29.92,West,270,15.0,23.0,97,0.00,,BKN100,0.00,VWS V14.00,2013-02-03 20:30:00,
2013-02-03 15:31:00,19.0,18.3,29.92,West,270,12.0,23.0,97,0.00,,BKN100,0.00,VWS V14.00,2013-02-03 20:31:00,
2013-02-03 15:33:00,19.0,18.3,29.92,WSW,247,13.0,23.0,97,0.00,,BKN100,0.00,VWS V14.00,2013-02-03 20:33:00,
2013-02-03 15:35:00,19.0,18.0,29.92,West,270,16.0,21.0,96,0.00,,BKN100,0.00,VWS V14.00,2013-02-03 20:35:00,
2013-02-03 15:36:00,19.0,17.8,29.92,West,270,13.0,21.0,95,0.00,,BKN100,0.00,VWS V14.00,2013-02-03 20:36:00,
2013-02-03 15:37:00,19.0,17.8,29.92,West,270,16.0,21.0,95,0.00,,BKN100,0.00,VWS V14.00,2013-02-03 20:37:00,
2013-02-03 15:38:00,19.0,17.8,29.92,West,270,14.0,21.0,95,0.00,,BKN100,0.00,VWS V14.00,2013-02-03 20:38:00,
2013-02-03 15:41:00,19.0,18.0,29.92,West,270,16.0,19.0,96,0.00,,BKN100,0.00,VWS V14.00,2013-02-03 20:41:00,
2013-02-03 15:42:00,19.0,18.0,29.92,West,270,18.0,19.0,96,0.00,,BKN100,0.00,VWS V14.00,2013-02-03 20:42:00,
2013-02-03 15:43:00,19.0,17.8,29.92,WSW,247,11.0,19.0,95,0.00,,BKN100,0.00,VWS V14.00,2013-02-03 20:43:00,
2013-02-03 15:44:00,20.0,18.8,29.93,West,270,11.0,18.0,95,0.00,,BKN100,0.00,VWS V14.00,2013-02-03 20:44:00,
2013-02-03 15:47:00,19.0,17.3,29.93,West,270,20.0,23.0,93,0.00,,BKN100,0.00,VWS V14.00,2013-02-03 20:47:00,
2013-02-03 15:48:00,19.0,17.3,29.93,West,270,20.0,20.0,93,0.00,,BKN100,0.00,VWS V14.00,2013-02-03 20:48:00,
2013-02-03 15:49:00,19.0,17.6,29.93,West,270,18.0,20.0,94,0.00,,BKN100,0.00,VWS V14.00,2013-02-03 20:49:00,
2013-02-03 15:52:00,19.0,18.0,29.93,West,270,12.0,24.0,96,0.00,,BKN100,0.00,VWS V14.00,2013-02-03 20:52:00,
2013-02-03 15:53:00,19.0,18.0,29.93,West,270,12.0,24.0,96,0.00,,BKN100,0.00,VWS V14.00,2013-02-03 20:53:00,
2013-02-03 15:54:00,19.0,17.8,29.93,West,270,19.0,19.0,95,0.00,,BKN100,0.00,VWS V14.00,2013-02-03 20:54:00,
2013-02-03 15:55:00,19.0,17.8,29.93,West,270,16.0,21.0,95,0.00,,BKN100,0.00,VWS V14.00,2013-02-03 20:55:00,
2013-02-03 15:58:00,19.0,17.6,29.93,West,270,20.0,22.0,94,0.00,,BKN100,0.00,VWS V14.00,2013-02-03 20:58:00,
2013-02-03 15:59:00,19.0,17.6,29.93,West,270,14.0,23.0,94,0.00,,BKN100,0.00,VWS V14.00,2013-02-03 20:59:00,
2013-02-03 16:00:00,19.0,17.6,29.93,West,270,17.0,23.0,94,0.00,,BKN100,0.00,VWS V14.00,2013-02-03 21:00:00,
2013-02-03 16:01:00,19.0,17.8,29.93,West,270,15.0,23.0,95,0.00,,SCT100,0.00,VWS V14.00,2013-02-03 21:01:00,
2013-02-03 16:03:00,19.0,17.6,29.93,West,270,16.0,21.0,94,0.00,,SCT100,0.00,VWS V14.00,2013-02-03 21:03:00,
2013-02-03 16:06:00,19.0,17.6,29.93,West,270,13.0,21.0,94,0.00,,SCT100,0.00,VWS V14.00,2013-02-03 21:06:00,
2013-02-03 16:07:00,19.0,17.6,29.93,West,270,18.0,21.0,94,0.00,,SCT100,0.00,VWS V14.00,2013-02-03 21:07:00,
2013-02-03 16:09:00,19.0,17.8,29.93,West,270,14.0,20.0,95,0.00,,SCT100,0.00,VWS V14.00,2013-02-03 21:09:00,
2013-02-03 16:11:00,19.0,17.8,29.93,West,270,15.0,21.0,95,0.00,,SCT100,0.00,VWS V14.00,2013-02-03 21:11:00,
2013-02-03 16:12:00,19.0,17.6,29.93,West,270,11.0,21.0,94,0.00,,SCT100,0.00,VWS V14.00,2013-02-03 21:12:00,
2013-02-03 16:13:00,19.0,17.6,29.93,West,270,15.0,21.0,94,0.00,,SCT100,0.00,VWS V14.00,2013-02-03 21:13:00,
2013-02-03 16:16:00,19.0,16.8,29.93,West,270,19.0,22.0,91,0.00,,SCT100,0.00,VWS V14.00,2013-02-03 21:16:00,
2013-02-03 16:17:00,19.0,16.8,29.93,West,270,19.0,22.0,91,0.00,,SCT100,0.00,VWS V14.00,2013-02-03 21:17:00,
2013-02-03 16:18:00,19.0,16.8,29.93,West,270,18.0,20.0,91,0.00,,SCT100,0.00,VWS V14.00,2013-02-03 21:18:00,
2013-02-03 16:22:00,19.0,16.8,29.93,West,270,20.0,22.0,91,0.00,,SCT100,0.00,VWS V14.00,2013-02-03 21:22:00,
2013-02-03 16:23:00,19.0,16.3,29.93,West,270,11.0,21.0,89,0.00,,SCT100,0.00,VWS V14.00,2013-02-03 21:23:00,
2013-02-03 16:24:00,19.0,16.3,29.93,West,270,15.0,21.0,89,0.00,,SCT100,0.00,VWS V14.00,2013-02-03 21:24:00,
2013-02-03 16:28:00,19.0,16.3,29.93,WSW,247,13.0,13.0,89,0.00,,SCT100,0.00,VWS V14.00,2013-02-03 21:28:00,
2013-02-03 16:29:00,19.0,16.6,29.93,West,270,17.0,18.0,90,0.00,,SCT100,0.00,VWS V14.00,2013-02-03 21:29:00,
2013-02-03 16:30:00,19.0,16.8,29.93,West,270,13.0,20.0,91,0.00,,SCT100,0.00,VWS V14.00,2013-02-03 21:30:00,
2013-02-03 16:33:00,19.0,16.0,29.93,West,270,21.0,21.0,88,0.00,,SCT100,0.00,VWS V14.00,2013-02-03 21:33:00,
2013-02-03 16:34:00,20.0,17.3,29.93,West,270,16.0,21.0,89,0.00,,SCT100,0.00,VWS V14.00,2013-02-03 21:34:00,
2013-02-03 16:35:00,20.0,17.0,29.93,WNW,292,14.0,21.0,88,0.00,,SCT100,0.00,VWS V14.00,2013-02-03 21:35:00,
2013-02-03 16:36:00,20.0,17.0,29.93,West,270,16.0,21.0,88,0.00,,SCT100,0.00,VWS V14.00,2013-02-03 21:36:00,
2013-02-03 16:38:00,19.0,16.0,29.93,West,270,16.0,21.0,88,0.00,,SCT100,0.00,VWS V14.00,2013-02-03 21:38:00,
2013-02-03 16:39:00,19.0,16.0,29.93,West,270,15.0,21.0,88,0.00,,SCT100,0.00,VWS V14.00,2013-02-03 21:39:00,
2013-02-03 16:40:00,20.0,17.0,29.93,West,270,11.0,21.0,88,0.00,,SCT100,0.00,VWS V14.00,2013-02-03 21:40:00,
2013-02-03 16:41:00,19.0,16.3,29.93,West,270,15.0,21.0,89,0.00,,SCT100,0.00,VWS V14.00,2013-02-03 21:41:00,
2013-02-03 16:44:00,19.0,15.5,29.93,West,270,20.0,21.0,86,0.00,,SCT100,0.00,VWS V14.00,2013-02-03 21:44:00,
2013-02-03 16:46:00,20.0,17.0,29.93,West,270,14.0,23.0,88,0.00,,SCT100,0.00,VWS V14.00,2013-02-03 21:46:00,
2013-02-03 16:47:00,20.0,17.0,29.93,West,270,13.0,23.0,88,0.00,,SCT100,0.00,VWS V14.00,2013-02-03 21:47:00,
2013-02-03 16:50:00,20.0,17.3,29.93,West,270,19.0,21.0,89,0.00,,SCT100,0.00,VWS V14.00,2013-02-03 21:50:00,
2013-02-03 16:51:00,19.0,16.3,29.93,West,270,22.0,22.0,89,0.00,,SCT100,0.00,VWS V14.00,2013-02-03 21:51:00,
2013-02-03 16:52:00,19.0,17.5,29.93,West,270,18.0,22.0,89,0.00,,SCT100,0.00,VWS V14.00,2013-02-03 21:52:00,
2013-02-03 16:56:00,19.0,16.3,29.94,West,270,17.0,22.0,89,0.00,,SCT100,0.00,VWS V14.00,2013-02-03 21:56:00,
2013-02-03 16:57:00,19.0,16.6,29.94,West,270,19.0,22.0,90,0.00,,SCT100,0.00,VWS V14.00,2013-02-03 21:57:00,
2013-02-03 16:58:00,19.0,16.6,29.94,West,270,13.0,22.0,90,0.00,,SCT100,0.00,VWS V14.00,2013-02-03 21:58:00,
2013-02-03 17:02:00,19.0,16.8,29.94,West,270,9.0,18.0,91,0.00,,OVC075,0.00,VWS V14.00,2013-02-03 22:02:00,
2013-02-03 17:03:00,20.0,17.5,29.94,West,270,16.0,16.0,91,0.00,,OVC075,0.00,VWS V14.00,2013-02-03 22:03:00,
2013-02-03 17:07:00,20.0,17.8,29.94,West,270,10.0,21.0,91,0.00,,OVC075,0.00,VWS V14.00,2013-02-03 22:07:00,
2013-02-03 17:08:00,20.0,17.8,29.94,WNW,292,18.0,18.0,91,0.00,,OVC075,0.00,VWS V14.00,2013-02-03 22:08:00,
2013-02-03 17:09:00,19.0,17.1,29.94,WNW,292,15.0,20.0,92,0.00,,OVC075,0.00,VWS V14.00,2013-02-03 22:09:00,
2013-02-03 17:13:00,19.0,17.1,29.94,West,270,18.0,19.0,92,0.00,,OVC075,0.00,VWS V14.00,2013-02-03 22:13:00,
2013-02-03 17:14:00,19.0,17.1,29.94,West,270,10.0,19.0,92,0.00,,OVC075,0.00,VWS V14.00,2013-02-03 22:14:00,
2013-02-03 17:19:00,20.0,17.8,29.94,West,270,16.0,18.0,91,0.00,,OVC075,0.00,VWS V14.00,2013-02-03 22:19:00,
2013-02-03 17:20:00,20.0,18.0,29.94,WSW,247,19.0,20.0,92,0.00,,OVC075,0.00,VWS V14.00,2013-02-03 22:20:00,
2013-02-03 17:21:00,20.0,17.8,29.94,WSW,247,20.0,20.0,91,0.00,,OVC075,0.00,VWS V14.00,2013-02-03 22:21:00,
2013-02-03 17:24:00,20.0,18.3,29.94,WSW,247,17.0,19.0,93,0.00,,OVC075,0.00,VWS V14.00,2013-02-03 22:24:00,
2013-02-03 17:26:00,19.0,17.6,29.94,WSW,247,18.0,23.0,94,0.00,,OVC075,0.00,VWS V14.00,2013-02-03 22:26:00,
2013-02-03 17:29:00,19.0,17.6,29.94,WSW,247,16.0,24.0,94,0.00,,OVC075,0.00,VWS V14.00,2013-02-03 22:29:00,
2013-02-03 17:30:00,19.0,17.6,29.94,WSW,247,15.0,24.0,94,0.00,,OVC075,0.00,VWS V14.00,2013-02-03 22:30:00,
2013-02-03 17:32:00,19.0,17.8,29.94,WSW,247,18.0,24.0,95,0.00,,OVC075,0.00,VWS V14.00,2013-02-03 22:32:00,
2013-02-03 17:33:00,19.0,18.0,29.94,SW,225,10.0,15.0,96,0.00,,OVC075,0.00,VWS V14.00,2013-02-03 22:33:00,
2013-02-03 17:35:00,19.0,17.6,29.93,WSW,247,16.0,24.0,94,0.00,,OVC075,0.00,VWS V14.00,2013-02-03 22:35:00,
2013-02-03 17:38:00,19.0,18.0,29.93,WSW,247,12.0,16.0,96,0.00,,OVC075,0.00,VWS V14.00,2013-02-03 22:38:00,
2013-02-03 17:40:00,19.0,17.6,29.93,WSW,247,16.0,23.0,94,0.00,,OVC075,0.00,VWS V14.00,2013-02-03 22:40:00,
2013-02-03 17:41:00,19.0,17.6,29.93,WSW,247,17.0,23.0,94,0.00,,OVC075,0.00,VWS V14.00,2013-02-03 22:41:00,
2013-02-03 17:43:00,19.0,17.6,29.94,West,270,16.0,20.0,94,0.00,,OVC075,0.00,VWS V14.00,2013-02-03 22:43:00,
2013-02-03 17:44:00,19.0,17.6,29.94,West,270,15.0,23.0,94,0.00,,OVC075,0.00,VWS V14.00,2013-02-03 22:44:00,
2013-02-03 17:46:00,19.0,18.0,29.94,West,270,19.0,24.0,96,0.00,,OVC075,0.00,VWS V14.00,2013-02-03 22:46:00,
2013-02-03 17:48:00,19.0,17.8,29.94,SW,225,15.0,20.0,96,0.00,,OVC075,0.00,VWS V14.00,2013-02-03 22:48:00,
2013-02-03 17:50:00,19.0,17.6,29.94,WSW,247,19.0,24.0,94,0.00,,OVC075,0.00,VWS V14.00,2013-02-03 22:50:00,
2013-02-03 17:51:00,19.0,18.0,29.94,WSW,247,21.0,24.0,96,0.00,,OVC075,0.00,VWS V14.00,2013-02-03 22:51:00,
2013-02-03 17:56:00,19.0,17.8,29.94,WSW,247,18.0,23.0,95,0.00,,OVC075,0.00,VWS V14.00,2013-02-03 22:56:00,
2013-02-03 17:58:00,19.0,18.0,29.94,WSW,247,16.0,24.0,96,0.00,,OVC075,0.00,VWS V14.00,2013-02-03 22:58:00,
2013-02-03 18:01:00,19.0,18.3,29.94,West,270,18.0,19.0,97,0.00,,OVC045,0.00,VWS V14.00,2013-02-03 23:01:00,
2013-02-03 18:02:00,19.0,18.3,29.94,West,270,20.0,21.0,97,0.00,,OVC045,0.00,VWS V14.00,2013-02-03 23:02:00,
2013-02-03 18:04:00,19.0,18.3,29.94,WSW,247,21.0,22.0,97,0.00,,OVC045,0.00,VWS V14.00,2013-02-03 23:04:00,
2013-02-03 18:07:00,19.0,18.8,29.94,WSW,247,19.0,23.0,99,0.00,,OVC045,0.00,VWS V14.00,2013-02-03 23:07:00,
2013-02-03 18:09:00,19.0,18.8,29.94,WSW,247,20.0,20.0,99,0.00,,OVC045,0.00,VWS V14.00,2013-02-03 23:09:00,
2013-02-03 18:13:00,19.0,18.3,29.95,WSW,247,14.0,21.0,97,0.00,,OVC045,0.00,VWS V14.00,2013-02-03 23:13:00,
2013-02-03 18:14:00,19.0,18.3,29.95,West,270,16.0,21.0,97,0.00,,OVC045,0.00,VWS V14.00,2013-02-03 23:14:00,
2013-02-03 18:16:00,19.0,18.5,29.95,WSW,247,16.0,23.0,98,0.00,,OVC045,0.00,VWS V14.00,2013-02-03 23:16:00,
2013-02-03 18:19:00,19.0,18.3,29.95,WSW,247,20.0,26.0,97,0.00,,OVC045,0.00,VWS V14.00,2013-02-03 23:19:00,
2013-02-03 18:20:00,19.0,18.3,29.95,WSW,247,21.0,26.0,97,0.00,,OVC045,0.00,VWS V14.00,2013-02-03 23:20:00,
2013-02-03 18:22:00,19.0,18.5,29.95,WSW,247,15.0,26.0,98,0.00,,OVC045,0.00,VWS V14.00,2013-02-03 23:22:00,
2013-02-03 18:25:00,19.0,18.5,29.96,West,270,15.0,26.0,98,0.00,,OVC045,0.00,VWS V14.00,2013-02-03 23:25:00,
2013-02-03 18:28:00,19.0,18.8,29.96,WSW,247,13.0,15.0,99,0.00,,OVC045,0.00,VWS V14.00,2013-02-03 23:28:00,
2013-02-03 18:29:00,19.0,18.8,29.96,WSW,247,20.0,23.0,99,0.00,,OVC045,0.00,VWS V14.00,2013-02-03 23:29:00,
2013-02-03 18:31:00,19.0,18.8,29.96,WSW,247,20.0,23.0,99,0.00,,OVC045,0.00,VWS V14.00,2013-02-03 23:31:00,
2013-02-03 18:33:00,19.0,18.8,29.96,WSW,247,13.0,23.0,99,0.00,,OVC045,0.00,VWS V14.00,2013-02-03 23:33:00,
2013-02-03 18:35:00,19.0,18.8,29.96,WSW,247,16.0,23.0,99,0.00,,OVC045,0.00,VWS V14.00,2013-02-03 23:35:00,
2013-02-03 18:37:00,19.0,18.8,29.96,WSW,247,20.0,23.0,99,0.00,,OVC045,0.00,VWS V14.00,2013-02-03 23:37:00,
2013-02-03 18:38:00,19.0,18.8,29.96,West,270,13.0,19.0,99,0.00,,OVC045,0.00,VWS V14.00,2013-02-03 23:38:00,
2013-02-03 18:41:00,19.0,19.0,29.96,WSW,247,21.0,23.0,100,0.00,,OVC045,0.00,VWS V14.00,2013-02-03 23:41:00,
2013-02-03 18:42:00,19.0,19.0,29.96,WSW,247,16.0,23.0,100,0.00,,OVC045,0.00,VWS V14.00,2013-02-03 23:42:00,
2013-02-03 18:43:00,19.0,18.8,29.96,WSW,247,19.0,23.0,99,0.00,,OVC045,0.00,VWS V14.00,2013-02-03 23:43:00,
2013-02-03 18:45:00,19.0,18.8,29.96,SW,225,11.0,23.0,99,0.00,,OVC045,0.00,VWS V14.00,2013-02-03 23:45:00,
2013-02-03 18:47:00,19.0,19.0,29.96,West,270,20.0,23.0,100,0.00,,OVC045,0.00,VWS V14.00,2013-02-03 23:47:00,
2013-02-03 18:48:00,19.0,19.0,29.96,WSW,247,12.0,23.0,100,0.00,,OVC045,0.00,VWS V14.00,2013-02-03 23:48:00,
2013-02-03 18:49:00,19.0,18.8,29.96,WSW,247,18.0,23.0,99,0.00,,OVC045,0.00,VWS V14.00,2013-02-03 23:49:00,
2013-02-03 18:50:00,19.0,18.8,29.96,SW,225,13.0,23.0,99,0.00,,OVC045,0.00,VWS V14.00,2013-02-03 23:50:00,
2013-02-03 18:52:00,19.0,18.8,29.96,WSW,247,18.0,23.0,99,0.00,,OVC045,0.00,VWS V14.00,2013-02-03 23:52:00,
2013-02-03 18:55:00,19.0,18.8,29.96,WSW,247,17.0,22.0,99,0.00,,OVC045,0.00,VWS V14.00,2013-02-03 23:55:00,
2013-02-03 18:56:00,19.0,18.8,29.96,WSW,247,18.0,22.0,99,0.00,,OVC045,0.00,VWS V14.00,2013-02-03 23:56:00,
2013-02-03 18:59:00,19.0,18.8,29.96,WSW,247,16.0,24.0,99,0.00,,OVC045,0.00,VWS V14.00,2013-02-03 23:59:00,
2013-02-03 19:00:00,19.0,18.8,29.96,WSW,247,17.0,24.0,99,0.00,,OVC045,0.00,VWS V14.00,2013-02-04 00:00:00,
2013-02-03 19:01:00,19.0,18.8,29.96,West,270,18.0,24.0,99,0.00,,OVC080,0.00,VWS V14.00,2013-02-04 00:01:00,
2013-02-03 19:02:00,19.0,18.8,29.96,SW,225,16.0,24.0,99,0.00,,OVC080,0.00,VWS V14.00,2013-02-04 00:02:00,
2013-02-03 19:05:00,19.0,18.8,29.96,SW,225,20.0,22.0,99,0.00,,OVC080,0.00,VWS V14.00,2013-02-04 00:05:00,
2013-02-03 19:06:00,19.0,18.8,29.96,WSW,247,19.0,22.0,99,0.00,,OVC080,0.00,VWS V14.00,2013-02-04 00:06:00,
2013-02-03 19:07:00,19.0,18.8,29.96,WSW,247,13.0,26.0,99,0.00,,OVC080,0.00,VWS V14.00,2013-02-04 00:07:00,
2013-02-03 19:12:00,19.0,18.5,29.96,SW,225,14.0,24.0,98,0.00,,OVC080,0.00,VWS V14.00,2013-02-04 00:12:00,
2013-02-03 19:13:00,19.0,18.8,29.96,WSW,247,25.0,25.0,99,0.00,,OVC080,0.00,VWS V14.00,2013-02-04 00:13:00,
2013-02-03 19:15:00,19.0,18.8,29.97,SW,225,24.0,25.0,99,0.00,,OVC080,0.00,VWS V14.00,2013-02-04 00:15:00,
2013-02-03 19:18:00,19.0,18.8,29.97,WSW,247,20.0,25.0,99,0.00,,OVC080,0.00,VWS V14.00,2013-02-04 00:18:00,
2013-02-03 19:21:00,19.0,18.8,29.97,SW,225,21.0,26.0,99,0.00,,OVC080,0.00,VWS V14.00,2013-02-04 00:21:00,
2013-02-03 19:23:00,19.0,18.5,29.97,WSW,247,13.0,26.0,98,0.00,,OVC080,0.00,VWS V14.00,2013-02-04 00:23:00,
2013-02-03 19:24:00,19.0,18.3,29.97,West,270,18.0,24.0,97,0.00,,OVC080,0.00,VWS V14.00,2013-02-04 00:24:00,
2013-02-03 19:27:00,19.0,18.3,29.97,WSW,247,21.0,24.0,97,0.00,,OVC080,0.00,VWS V14.00,2013-02-04 00:27:00,
2013-02-03 19:28:00,19.0,18.8,29.97,WSW,247,28.0,28.0,99,0.00,,OVC080,0.00,VWS V14.00,2013-02-04 00:28:00,
2013-02-03 19:29:00,19.0,18.8,29.97,WSW,247,18.0,28.0,99,0.00,,OVC080,0.00,VWS V14.00,2013-02-04 00:29:00,
2013-02-03 19:30:00,19.0,18.8,29.97,WSW,247,13.0,28.0,99,0.00,,OVC080,0.00,VWS V14.00,2013-02-04 00:30:00,
2013-02-03 19:32:00,19.0,19.0,29.97,WSW,247,17.0,28.0,100,0.00,,OVC080,0.00,VWS V14.00,2013-02-04 00:32:00,
2013-02-03 19:34:00,19.0,19.0,29.97,WSW,247,16.0,21.0,100,0.00,,OVC080,0.00,VWS V14.00,2013-02-04 00:34:00,
2013-02-03 19:36:00,19.0,18.8,29.97,SW,225,18.0,28.0,98,0.00,,OVC080,0.00,VWS V14.00,2013-02-04 00:36:00,
2013-02-03 19:38:00,19.0,18.5,29.97,WSW,247,19.0,19.0,98,0.00,,OVC080,0.00,VWS V14.00,2013-02-04 00:38:00,
2013-02-03 19:40:00,19.0,18.5,29.97,WSW,247,20.0,28.0,98,0.00,,OVC080,0.00,VWS V14.00,2013-02-04 00:40:00,
2013-02-03 19:41:00,19.0,18.0,29.97,WSW,247,22.0,28.0,96,0.00,,OVC080,0.00,VWS V14.00,2013-02-04 00:41:00,
2013-02-03 19:43:00,19.0,18.0,29.98,WSW,247,18.0,24.0,96,0.00,,OVC080,0.00,VWS V14.00,2013-02-04 00:43:00,
2013-02-03 19:45:00,19.0,18.3,29.98,WSW,247,28.0,28.0,97,0.00,,OVC080,0.00,VWS V14.00,2013-02-04 00:45:00,
2013-02-03 19:46:00,19.0,18.0,29.98,West,270,19.0,28.0,96,0.00,,OVC080,0.00,VWS V14.00,2013-02-04 00:46:00,
2013-02-03 19:48:00,19.0,17.8,29.98,West,270,30.0,30.0,95,0.00,,OVC080,0.00,VWS V14.00,2013-02-04 00:48:00,
2013-02-03 19:52:00,19.0,18.3,29.98,WSW,247,22.0,30.0,97,0.00,,OVC080,0.00,VWS V14.00,2013-02-04 00:52:00,
2013-02-03 19:54:00,19.0,17.6,29.98,SW,225,15.0,25.0,94,0.00,,OVC080,0.00,VWS V14.00,2013-02-04 00:54:00,
2013-02-03 19:57:00,19.0,18.0,29.98,WSW,247,19.0,29.0,96,0.00,,OVC080,0.00,VWS V14.00,2013-02-04 00:57:00,
2013-02-03 19:59:00,19.0,18.3,29.98,WSW,247,20.0,24.0,97,0.00,,OVC080,0.00,VWS V14.00,2013-02-04 00:59:00,
2013-02-03 20:00:00,19.0,18.0,29.98,WSW,247,26.0,26.0,96,0.00,,OVC080,0.00,VWS V14.00,2013-02-04 01:00:00,
2013-02-03 20:04:00,19.0,17.8,29.98,WSW,247,23.0,25.0,95,0.00,,OVC070,0.00,VWS V14.00,2013-02-04 01:04:00,
2013-02-03 20:05:00,19.0,18.0,29.98,WSW,247,23.0,25.0,96,0.00,,OVC070,0.00,VWS V14.00,2013-02-04 01:05:00,
2013-02-03 20:09:00,19.0,17.8,29.98,West,270,20.0,24.0,95,0.00,,OVC070,0.00,VWS V14.00,2013-02-04 01:09:00,
2013-02-03 20:10:00,19.0,17.6,29.98,West,270,21.0,27.0,94,0.00,,OVC070,0.00,VWS V14.00,2013-02-04 01:10:00,
2013-02-03 20:11:00,19.0,17.8,29.98,WSW,247,20.0,27.0,95,0.00,,OVC070,0.00,VWS V14.00,2013-02-04 01:11:00,
2013-02-03 20:14:00,19.0,17.6,29.97,WSW,247,18.0,26.0,94,0.00,,OVC070,0.00,VWS V14.00,2013-02-04 01:14:00,
2013-02-03 20:15:00,19.0,17.8,29.97,WSW,247,22.0,26.0,95,0.00,,OVC070,0.00,VWS V14.00,2013-02-04 01:15:00,
2013-02-03 20:16:00,19.0,17.8,29.97,WSW,247,21.0,26.0,95,0.00,,OVC070,0.00,VWS V14.00,2013-02-04 01:16:00,
2013-02-03 20:17:00,19.0,18.0,29.97,WSW,247,18.0,28.0,96,0.00,,OVC070,0.00,VWS V14.00,2013-02-04 01:17:00,
2013-02-03 20:19:00,19.0,18.0,29.97,WSW,247,18.0,27.0,96,0.00,,OVC070,0.00,VWS V14.00,2013-02-04 01:19:00,
2013-02-03 20:21:00,19.0,18.3,29.97,West,270,21.0,27.0,97,0.00,,OVC070,0.00,VWS V14.00,2013-02-04 01:21:00,
2013-02-03 20:22:00,19.0,18.3,29.97,WSW,247,19.0,27.0,97,0.00,,OVC070,0.00,VWS V14.00,2013-02-04 01:22:00,
2013-02-03 20:27:00,19.0,18.0,29.98,West,270,17.0,27.0,96,0.00,,OVC070,0.00,VWS V14.00,2013-02-04 01:27:00,
2013-02-03 20:28:00,19.0,18.0,29.98,West,270,15.0,27.0,96,0.00,,OVC070,0.00,VWS V14.00,2013-02-04 01:28:00,
2013-02-03 20:30:00,19.0,18.3,29.98,SW,225,21.0,29.0,97,0.00,,OVC070,0.00,VWS V14.00,2013-02-04 01:30:00,
2013-02-03 20:32:00,19.0,18.0,29.98,West,270,24.0,30.0,96,0.00,,OVC070,0.00,VWS V14.00,2013-02-04 01:32:00,
2013-02-03 20:33:00,19.0,18.0,29.98,West,270,22.0,30.0,96,0.00,,OVC070,0.00,VWS V14.00,2013-02-04 01:33:00,
2013-02-03 20:37:00,19.0,18.3,29.98,WSW,247,24.0,29.0,97,0.00,,OVC070,0.00,VWS V14.00,2013-02-04 01:37:00,
2013-02-03 20:38:00,19.0,18.3,29.98,WSW,247,15.0,29.0,97,0.00,,OVC070,0.00,VWS V14.00,2013-02-04 01:38:00,
2013-02-03 20:43:00,19.0,18.3,29.98,West,270,13.0,32.0,97,0.00,,OVC070,0.00,VWS V14.00,2013-02-04 01:43:00,
2013-02-03 20:48:00,19.0,18.3,29.98,West,270,23.0,25.0,97,0.00,,OVC070,0.00,VWS V14.00,2013-02-04 01:48:00,
2013-02-03 20:49:00,19.0,18.3,29.98,West,270,23.0,26.0,97,0.00,,OVC070,0.00,VWS V14.00,2013-02-04 01:49:00,
2013-02-03 20:54:00,19.0,18.0,29.98,WSW,247,24.0,27.0,96,0.00,,OVC070,0.00,VWS V14.00,2013-02-04 01:54:00,
2013-02-03 20:56:00,19.0,18.3,29.98,West,270,21.0,29.0,97,0.00,,OVC070,0.00,VWS V14.00,2013-02-04 01:56:00,
2013-02-03 20:59:00,19.0,18.5,29.98,West,270,22.0,23.0,98,0.00,,OVC070,0.00,VWS V14.00,2013-02-04 01:59:00,
2013-02-03 21:00:00,19.0,18.5,29.98,WSW,247,21.0,26.0,98,0.00,,OVC070,0.00,VWS V14.00,2013-02-04 02:00:00,
2013-02-03 21:02:00,19.0,18.3,29.98,WSW,247,28.0,28.0,97,0.00,,BKN070,0.00,VWS V14.00,2013-02-04 02:02:00,
2013-02-03 21:04:00,19.0,18.3,29.98,WSW,247,22.0,27.0,97,0.00,,BKN070,0.00,VWS V14.00,2013-02-04 02:04:00,
2013-02-03 21:05:00,19.0,18.5,29.98,WSW,247,28.0,28.0,98,0.00,,BKN070,0.00,VWS V14.00,2013-02-04 02:05:00,
2013-02-03 21:06:00,19.0,18.3,29.98,West,270,28.0,28.0,97,0.00,,BKN070,0.00,VWS V14.00,2013-02-04 02:06:00,
2013-02-03 21:08:00,19.0,18.3,29.98,WSW,247,20.0,28.0,97,0.00,,BKN070,0.00,VWS V14.00,2013-02-04 02:08:00,
2013-02-03 21:11:00,19.0,18.5,29.98,WSW,247,20.0,28.0,98,0.00,,BKN070,0.00,VWS V14.00,2013-02-04 02:11:00,
2013-02-03 21:12:00,19.0,18.3,29.98,WSW,247,16.0,30.0,97,0.00,,BKN070,0.00,VWS V14.00,2013-02-04 02:12:00,
2013-02-03 21:13:00,19.0,18.3,29.98,WSW,247,15.0,30.0,97,0.00,,BKN070,0.00,VWS V14.00,2013-02-04 02:13:00,
2013-02-03 21:18:00,19.0,18.5,29.98,WSW,247,24.0,29.0,98,0.00,,BKN070,0.00,VWS V14.00,2013-02-04 02:18:00,
2013-02-03 21:19:00,20.0,19.5,29.98,West,270,24.0,28.0,98,0.00,,BKN070,0.00,VWS V14.00,2013-02-04 02:19:00,
2013-02-03 21:23:00,20.0,19.3,29.98,West,270,24.0,31.0,97,0.00,,BKN050,0.00,VWS V14.00,2013-02-04 02:23:00,
2013-02-03 21:24:00,20.0,19.8,29.99,West,270,19.0,25.0,99,0.00,,BKN050,0.00,VWS V14.00,2013-02-04 02:24:00,
2013-02-03 21:26:00,20.0,19.5,29.99,West,270,21.0,28.0,98,0.00,,BKN050,0.00,VWS V14.00,2013-02-04 02:26:00,
2013-02-03 21:28:00,20.0,19.5,29.99,West,270,24.0,30.0,98,0.00,,BKN050,0.00,VWS V14.00,2013-02-04 02:28:00,
2013-02-03 21:30:00,20.0,19.5,29.99,West,270,21.0,30.0,98,0.00,,BKN050,0.00,VWS V14.00,2013-02-04 02:30:00,
2013-02-03 21:31:00,20.0,19.5,29.99,WSW,247,21.0,30.0,98,0.00,,BKN050,0.00,VWS V14.00,2013-02-04 02:31:00,
2013-02-03 21:32:00,20.0,19.5,29.99,WSW,247,18.0,30.0,98,0.00,,BKN050,0.00,VWS V14.00,2013-02-04 02:32:00,
2013-02-03 21:34:00,20.0,19.8,29.99,WSW,247,21.0,27.0,99,0.00,,BKN050,0.00,VWS V14.00,2013-02-04 02:34:00,
2013-02-03 21:36:00,20.0,20.0,29.99,West,270,22.0,27.0,100,0.00,,BKN050,0.00,VWS V14.00,2013-02-04 02:36:00,
2013-02-03 21:38:00,20.0,19.8,29.99,West,270,22.0,28.0,99,0.00,,BKN050,0.00,VWS V14.00,2013-02-04 02:38:00,
2013-02-03 21:39:00,20.0,19.5,29.99,West,270,29.0,29.0,98,0.00,,BKN050,0.00,VWS V14.00,2013-02-04 02:39:00,
2013-02-03 21:41:00,20.0,19.5,29.99,WSW,247,20.0,29.0,98,0.00,,BKN050,0.00,VWS V14.00,2013-02-04 02:41:00,
2013-02-03 21:42:00,20.0,19.8,29.99,WSW,247,21.0,29.0,99,0.00,,BKN050,0.00,VWS V14.00,2013-02-04 02:42:00,
2013-02-03 21:43:00,20.0,19.5,29.99,West,270,15.0,26.0,98,0.00,,BKN050,0.00,VWS V14.00,2013-02-04 02:43:00,
2013-02-03 21:45:00,19.0,18.8,29.99,WSW,247,22.0,29.0,99,0.00,,BKN050,0.00,VWS V14.00,2013-02-04 02:45:00,
2013-02-03 21:47:00,20.0,20.0,29.99,West,270,25.0,29.0,100,0.00,,BKN050,0.00,VWS V14.00,2013-02-04 02:47:00,
2013-02-03 21:48:00,20.0,20.0,29.99,West,270,22.0,29.0,100,0.00,,BKN050,0.00,VWS V14.00,2013-02-04 02:48:00,
2013-02-03 21:49:00,20.0,20.0,29.99,WSW,247,22.0,27.0,100,0.00,,BKN050,0.00,VWS V14.00,2013-02-04 02:49:00,
2013-02-03 21:50:00,20.0,20.0,29.99,WSW,247,25.0,29.0,100,0.00,,BKN050,0.00,VWS V14.00,2013-02-04 02:50:00,
2013-02-03 21:53:00,20.0,20.0,29.99,WSW,247,21.0,29.0,100,0.00,,BKN050,0.00,VWS V14.00,2013-02-04 02:53:00,
2013-02-03 21:54:00,20.0,20.0,30.00,West,270,20.0,28.0,100,0.00,,BKN050,0.00,VWS V14.00,2013-02-04 02:54:00,
2013-02-03 21:55:00,20.0,20.0,30.00,West,270,27.0,28.0,100,0.00,,BKN050,0.00,VWS V14.00,2013-02-04 02:55:00,
2013-02-03 21:57:00,20.0,20.0,30.00,West,270,18.0,29.0,100,0.00,,BKN050,0.00,VWS V14.00,2013-02-04 02:57:00,
2013-02-03 21:59:00,20.0,20.0,30.00,West,270,25.0,27.0,100,0.00,,BKN050,0.00,VWS V14.00,2013-02-04 02:59:00,
2013-02-03 22:01:00,20.0,20.0,30.00,West,270,23.0,32.0,100,0.00,,OVC055,0.00,VWS V14.00,2013-02-04 03:01:00,
2013-02-03 22:02:00,20.0,20.0,30.00,WSW,247,28.0,32.0,100,0.00,,OVC055,0.00,VWS V14.00,2013-02-04 03:02:00,
2013-02-03 22:05:00,20.0,20.0,30.01,West,270,22.0,28.0,100,0.00,,OVC055,0.00,VWS V14.00,2013-02-04 03:05:00,
2013-02-03 22:07:00,20.0,20.0,30.01,West,270,23.0,28.0,100,0.00,,OVC055,0.00,VWS V14.00,2013-02-04 03:07:00,
2013-02-03 22:10:00,20.0,20.0,30.01,West,270,12.0,28.0,100,0.00,,OVC055,0.00,VWS V14.00,2013-02-04 03:10:00,
2013-02-03 22:12:00,20.0,20.0,30.01,West,270,25.0,28.0,100,0.00,,OVC055,0.00,VWS V14.00,2013-02-04 03:12:00,
2013-02-03 22:13:00,20.0,20.0,30.01,West,270,17.0,28.0,100,0.00,,OVC055,0.00,VWS V14.00,2013-02-04 03:13:00,
2013-02-03 22:14:00,20.0,20.0,30.00,WSW,247,24.0,28.0,100,0.00,,OVC055,0.00,VWS V14.00,2013-02-04 03:14:00,
2013-02-03 22:16:00,20.0,20.0,30.00,WSW,247,19.0,33.0,100,0.00,,OVC055,0.00,VWS V14.00,2013-02-04 03:16:00,
2013-02-03 22:18:00,20.0,20.0,30.00,WSW,247,29.0,33.0,100,0.00,,OVC055,0.00,VWS V14.00,2013-02-04 03:18:00,
2013-02-03 22:19:00,20.0,20.0,30.00,WSW,247,26.0,29.0,100,0.00,,OVC055,0.00,VWS V14.00,2013-02-04 03:19:00,
2013-02-03 22:20:00,20.0,20.0,30.00,WSW,247,25.0,29.0,100,0.00,,OVC055,0.00,VWS V14.00,2013-02-04 03:20:00,
2013-02-03 22:22:00,20.0,20.0,30.00,WSW,247,20.0,29.0,100,0.00,,OVC055,0.00,VWS V14.00,2013-02-04 03:22:00,
2013-02-03 22:23:00,20.0,20.0,30.00,WSW,247,23.0,29.0,100,0.00,,OVC055,0.00,VWS V14.00,2013-02-04 03:23:00,
2013-02-03 22:24:00,20.0,20.0,30.01,WSW,247,20.0,28.0,100,0.00,,OVC055,0.00,VWS V14.00,2013-02-04 03:24:00,
2013-02-03 22:26:00,20.0,20.0,30.01,West,270,24.0,28.0,100,0.00,,OVC055,0.00,VWS V14.00,2013-02-04 03:26:00,